Index of /melodic/locations

[ICO]NameLast modifiedSizeDescription

[DIR]Parent Directory  -  
[   ]geometry_experimental27-Apr-2018 11:46 141  
[   ]dataspeed_can_msgs08-Sep-2018 10:18 132  
[   ]py_trees_msgs23-Jan-2019 11:49 117  
[   ]turtlebot3_applications_msgs24-Jan-2019 12:00 162  
[   ]turtlebot3_fake25-Jan-2019 11:13 123  
[   ]turtlebot3_gazebo25-Jan-2019 11:13 129  
[   ]turtlebot3_simulations25-Jan-2019 11:13 144  
[   ]zeroconf_msgs25-Jan-2019 11:26 117  
[   ]teleop_twist_joy26-Jan-2019 11:19 126  
[   ]fanuc_post_processor_example02-Feb-2019 11:52 162  
[   ]behaviortree_cpp03-Feb-2019 11:13 126  
[   ]yocs_ar_marker_tracking03-Feb-2019 11:41 147  
[   ]yocs_ar_pair_approach03-Feb-2019 11:41 141  
[   ]yocs_ar_pair_tracking03-Feb-2019 11:41 141  
[   ]yocs_cmd_vel_mux03-Feb-2019 11:41 126  
[   ]yocs_controllers03-Feb-2019 11:41 126  
[   ]yocs_diff_drive_pose_controller03-Feb-2019 11:41 171  
[   ]yocs_joyop03-Feb-2019 11:41 108  
[   ]yocs_keyop03-Feb-2019 11:41 108  
[   ]yocs_localization_manager03-Feb-2019 11:41 153  
[   ]yocs_math_toolkit03-Feb-2019 11:41 129  
[   ]yocs_navi_toolkit03-Feb-2019 11:41 129  
[   ]yocs_navigator03-Feb-2019 11:41 120  
[   ]yocs_rapps03-Feb-2019 11:41 108  
[   ]yocs_safety_controller03-Feb-2019 11:41 144  
[   ]yocs_velocity_smoother03-Feb-2019 11:41 144  
[   ]yocs_virtual_sensor03-Feb-2019 11:41 135  
[   ]yocs_waypoint_provider03-Feb-2019 11:41 144  
[   ]yocs_waypoints_navi03-Feb-2019 11:41 135  
[   ]yujin_ocs03-Feb-2019 11:41 105  
[   ]bfl11-Feb-2019 11:54 85  
[   ]open_manipulator_msgs12-Feb-2019 11:24 141  
[   ]robotis_manipulator12-Feb-2019 11:38 135  
[   ]open_manipulator_gazebo12-Feb-2019 11:44 147  
[   ]open_manipulator_simulations12-Feb-2019 11:44 162  
[   ]turtlebot3_autorace13-Feb-2019 11:13 135  
[   ]turtlebot3_autorace_camera13-Feb-2019 11:13 156  
[   ]turtlebot3_autorace_control13-Feb-2019 11:13 159  
[   ]turtlebot3_autorace_core13-Feb-2019 11:13 150  
[   ]turtlebot3_autorace_detect13-Feb-2019 11:13 156  
[   ]open_manipulator_with_tb3_gazebo13-Feb-2019 11:16 174  
[   ]open_manipulator_with_tb3_simulations13-Feb-2019 11:16 189  
[   ]turtlebot3_applications14-Feb-2019 11:15 147  
[   ]turtlebot3_automatic_parking14-Feb-2019 11:15 162  
[   ]turtlebot3_automatic_parking_vision14-Feb-2019 11:15 183  
[   ]turtlebot3_follow_filter14-Feb-2019 11:15 150  
[   ]turtlebot3_follower14-Feb-2019 11:15 135  
[   ]turtlebot3_panorama14-Feb-2019 11:15 135  
[   ]open_manipulator_with_tb315-Feb-2019 11:34 153  
[   ]open_manipulator_with_tb3_description15-Feb-2019 11:34 189  
[   ]open_manipulator_with_tb3_tools15-Feb-2019 11:34 171  
[   ]open_manipulator_with_tb3_waffle_moveit15-Feb-2019 11:34 195  
[   ]open_manipulator_with_tb3_waffle_pi_moveit15-Feb-2019 11:34 204  
[   ]nodelet17-Feb-2019 11:38 97  
[   ]nodelet_core17-Feb-2019 11:38 114  
[   ]nodelet_topic_tools17-Feb-2019 11:38 135  
[   ]test_nodelet17-Feb-2019 11:38 114  
[   ]test_nodelet_topic_tools17-Feb-2019 11:38 150  
[   ]open_manipulator22-Feb-2019 11:21 126  
[   ]open_manipulator_control_gui22-Feb-2019 11:21 162  
[   ]open_manipulator_controller22-Feb-2019 11:21 159  
[   ]open_manipulator_description22-Feb-2019 11:21 162  
[   ]open_manipulator_libs22-Feb-2019 11:21 141  
[   ]open_manipulator_moveit22-Feb-2019 11:21 147  
[   ]open_manipulator_teleop22-Feb-2019 11:21 147  
[   ]brics_actuator05-Mar-2019 11:55 120  
[   ]calibration11-Mar-2019 10:27 111  
[   ]calibration_estimation11-Mar-2019 10:27 144  
[   ]calibration_launch11-Mar-2019 10:27 132  
[   ]calibration_msgs11-Mar-2019 10:27 126  
[   ]calibration_setup_helper11-Mar-2019 10:27 150  
[   ]image_cb_detector11-Mar-2019 10:27 129  
[   ]interval_intersection11-Mar-2019 10:27 141  
[   ]joint_states_settler11-Mar-2019 10:27 138  
[   ]laser_cb_detector11-Mar-2019 10:27 129  
[   ]monocam_settler11-Mar-2019 10:27 123  
[   ]settlerlib11-Mar-2019 10:27 108  
[   ]dynamic_robot_state_publisher18-Mar-2019 10:12 165  
[   ]static_transform_mux19-Mar-2019 16:55 138  
[   ]movie_publisher19-Mar-2019 16:58 123  
[   ]rosbash_params19-Mar-2019 17:01 120  
[   ]cmake_modules21-Mar-2019 10:15 117  
[   ]md49_base_controller24-Mar-2019 10:08 138  
[   ]md49_messages24-Mar-2019 10:08 117  
[   ]md49_serialport24-Mar-2019 10:08 123  
[   ]rslidar26-Mar-2019 10:53 97  
[   ]rslidar_driver26-Mar-2019 10:53 120  
[   ]rslidar_msgs26-Mar-2019 10:53 114  
[   ]rslidar_pointcloud26-Mar-2019 10:53 132  
[   ]diagnostic_aggregator27-Mar-2019 10:35 141  
[   ]diagnostic_analysis27-Mar-2019 10:35 135  
[   ]diagnostic_common_diagnostics27-Mar-2019 10:35 165  
[   ]diagnostic_updater27-Mar-2019 10:35 132  
[   ]diagnostics27-Mar-2019 10:35 111  
[   ]rosdiagnostic27-Mar-2019 10:35 117  
[   ]self_test27-Mar-2019 10:35 105  
[   ]test_diagnostic_aggregator27-Mar-2019 10:35 156  
[   ]nav2d01-Apr-2019 17:49 91  
[   ]nav2d_exploration01-Apr-2019 17:49 129  
[   ]nav2d_karto01-Apr-2019 17:49 111  
[   ]nav2d_localizer01-Apr-2019 17:49 123  
[   ]nav2d_msgs01-Apr-2019 17:49 108  
[   ]nav2d_navigator01-Apr-2019 17:49 123  
[   ]nav2d_operator01-Apr-2019 17:49 120  
[   ]nav2d_remote01-Apr-2019 17:49 114  
[   ]nav2d_tutorials01-Apr-2019 17:49 123  
[   ]acado02-Apr-2019 10:29 91  
[   ]ouster_driver03-Apr-2019 10:42 117  
[   ]interactive_marker_proxy03-Apr-2019 10:44 150  
[   ]depthcloud_encoder04-Apr-2019 10:50 132  
[   ]allocators05-Apr-2019 10:34 108  
[   ]lockfree05-Apr-2019 10:34 100  
[   ]ros_realtime05-Apr-2019 10:34 114  
[   ]rosatomic05-Apr-2019 10:34 105  
[   ]rosrt05-Apr-2019 10:34 91  
[   ]xpp07-Apr-2019 10:14 85  
[   ]xpp_examples07-Apr-2019 10:14 114  
[   ]xpp_hyq07-Apr-2019 10:14 97  
[   ]xpp_msgs07-Apr-2019 10:14 100  
[   ]xpp_quadrotor07-Apr-2019 10:14 117  
[   ]xpp_states07-Apr-2019 10:14 108  
[   ]xpp_vis07-Apr-2019 10:14 97  
[   ]vapor_master07-Apr-2019 10:59 114  
[   ]codec_image_transport09-Apr-2019 10:23 141  
[   ]driver_base10-Apr-2019 10:17 111  
[   ]driver_common10-Apr-2019 10:17 117  
[   ]timestamp_tools10-Apr-2019 10:17 123  
[   ]concert_msgs11-Apr-2019 10:15 114  
[   ]concert_service_msgs11-Apr-2019 10:15 138  
[   ]concert_workflow_engine_msgs11-Apr-2019 10:15 162  
[   ]gateway_msgs11-Apr-2019 10:15 114  
[   ]rocon_app_manager_msgs11-Apr-2019 10:15 144  
[   ]rocon_device_msgs11-Apr-2019 10:15 129  
[   ]rocon_interaction_msgs11-Apr-2019 10:15 144  
[   ]rocon_msgs11-Apr-2019 10:15 108  
[   ]rocon_service_pair_msgs11-Apr-2019 10:15 147  
[   ]rocon_std_msgs11-Apr-2019 10:15 120  
[   ]rocon_tutorial_msgs11-Apr-2019 10:15 135  
[   ]scheduler_msgs11-Apr-2019 10:15 120  
[   ]rtctree11-Apr-2019 10:56 97  
[   ]wifi_ddwrt12-Apr-2019 10:30 108  
[   ]rocon_tools17-Apr-2019 11:06 111  
[   ]libsick_ldmrs20-Apr-2019 10:11 117  
[   ]epos2_motor_controller26-Apr-2019 10:25 144  
[   ]lauv_control27-Apr-2019 10:49 114  
[   ]lauv_description27-Apr-2019 10:49 126  
[   ]lauv_gazebo27-Apr-2019 10:49 111  
[   ]desistek_saga_control28-Apr-2019 10:13 141  
[   ]desistek_saga_description28-Apr-2019 10:13 153  
[   ]desistek_saga_gazebo28-Apr-2019 10:13 138  
[   ]prosilica_camera28-Apr-2019 10:18 126  
[   ]photo01-May-2019 10:17 91  
[   ]pr2_controller_configuration_gazebo01-May-2019 11:00 183  
[   ]pr2_gazebo01-May-2019 11:00 108  
[   ]pr2_gazebo_plugins01-May-2019 11:00 132  
[   ]pr2_simulator01-May-2019 11:00 117  
[   ]prosilica_gige_sdk02-May-2019 10:57 132  
[   ]wge100_camera03-May-2019 10:22 117  
[   ]wge100_driver03-May-2019 10:22 117  
[   ]jointstick11-May-2019 10:48 108  
[   ]rdl16-May-2019 11:02 85  
[   ]rdl_benchmark16-May-2019 11:02 117  
[   ]rdl_cmake16-May-2019 11:02 105  
[   ]rdl_dynamics16-May-2019 11:02 114  
[   ]rdl_msgs16-May-2019 11:02 100  
[   ]rdl_ros_tools16-May-2019 11:02 117  
[   ]rdl_urdfreader16-May-2019 11:02 120  
[   ]rosthrottle19-May-2019 10:49 111  
[   ]ibeo_core19-May-2019 10:53 105  
[   ]std_capabilities07-Jun-2019 01:41 126  
[   ]odva_ethernetip07-Jun-2019 01:46 123  
[   ]robot_activity07-Jun-2019 01:47 120  
[   ]robot_activity_msgs07-Jun-2019 01:47 135  
[   ]robot_activity_tutorials07-Jun-2019 01:47 150  
[   ]rosauth07-Jun-2019 01:52 97  
[   ]unique_id07-Jun-2019 02:00 163  
[   ]unique_identifier07-Jun-2019 02:00 129  
[   ]uuid_msgs07-Jun-2019 02:00 105  
[   ]willow_maps07-Jun-2019 02:02 111  
[   ]find_object_2d07-Jun-2019 02:07 120  
[   ]flexbe_app07-Jun-2019 02:18 108  
[   ]pheeno_ros_description07-Jun-2019 02:24 144  
[   ]marker_rviz_plugin07-Jun-2019 02:24 132  
[   ]imagezero07-Jun-2019 02:25 105  
[   ]imagezero_image_transport07-Jun-2019 02:25 153  
[   ]imagezero_ros07-Jun-2019 02:25 117  
[   ]pacmod307-Jun-2019 02:27 97  
[   ]r12_hardware_interface07-Jun-2019 02:36 144  
[   ]ecl_config07-Jun-2019 02:39 108  
[   ]ecl_console07-Jun-2019 02:39 111  
[   ]ecl_converters_lite07-Jun-2019 02:39 135  
[   ]ecl_errors07-Jun-2019 02:39 108  
[   ]ecl_io07-Jun-2019 02:39 94  
[   ]ecl_lite07-Jun-2019 02:39 100  
[   ]ecl_sigslots_lite07-Jun-2019 02:39 129  
[   ]ecl_time_lite07-Jun-2019 02:39 117  
[   ]robot_self_filter07-Jun-2019 02:41 129  
[   ]stage07-Jun-2019 02:42 91  
[   ]qb_hand07-Jun-2019 02:44 97  
[   ]qb_hand_control07-Jun-2019 02:44 151  
[   ]qb_hand_description07-Jun-2019 02:44 135  
[   ]qb_hand_hardware_interface07-Jun-2019 02:44 184  
[   ]hector_gazebo07-Jun-2019 02:45 117  
[   ]hector_gazebo_plugins07-Jun-2019 02:45 141  
[   ]hector_gazebo_thermal_camera07-Jun-2019 02:45 162  
[   ]hector_gazebo_worlds07-Jun-2019 02:45 138  
[   ]hector_sensors_gazebo07-Jun-2019 02:45 141  
[   ]dynamixel_workbench_msgs07-Jun-2019 02:47 150  
[   ]openrtm_aist_python07-Jun-2019 02:57 135  
[   ]cartesian_msgs07-Jun-2019 03:01 120  
[   ]twist_mux_msgs07-Jun-2019 03:07 120  
[   ]stage_ros07-Jun-2019 03:09 105  
[   ]laser_filtering07-Jun-2019 03:10 123  
[   ]map_laser07-Jun-2019 03:10 105  
[   ]vision_msgs07-Jun-2019 03:10 111  
[   ]automotive_autonomy_msgs07-Jun-2019 03:11 150  
[   ]automotive_navigation_msgs07-Jun-2019 03:11 156  
[   ]automotive_platform_msgs07-Jun-2019 03:11 150  
[   ]ecl_mobile_robot07-Jun-2019 03:14 126  
[   ]ecl_navigation07-Jun-2019 03:14 120  
[   ]rgbd_launch07-Jun-2019 03:16 111  
[   ]mrpt_generic_sensor07-Jun-2019 03:17 135  
[   ]mrpt_sensorlib07-Jun-2019 03:17 120  
[   ]mrpt_sensors07-Jun-2019 03:17 114  
[   ]web_video_server07-Jun-2019 03:20 126  
[   ]executive_smach_visualization07-Jun-2019 03:25 165  
[   ]smach_viewer07-Jun-2019 03:25 114  
[   ]pr2_arm_kinematics07-Jun-2019 03:30 132  
[   ]pr2_kinematics07-Jun-2019 03:30 120  
[   ]camera_umd07-Jun-2019 03:32 108  
[   ]jpeg_streamer07-Jun-2019 03:32 117  
[   ]uvc_camera07-Jun-2019 03:32 108  
[   ]dummy_slam_broadcaster07-Jun-2019 03:32 144  
[   ]pepperl_fuchs_r200007-Jun-2019 03:32 135  
[   ]static_tf07-Jun-2019 03:40 105  
[   ]astuff_sensor_msgs07-Jun-2019 03:47 132  
[   ]delphi_esr_msgs07-Jun-2019 03:47 123  
[   ]delphi_mrr_msgs07-Jun-2019 03:47 123  
[   ]delphi_srr_msgs07-Jun-2019 03:47 123  
[   ]derived_object_msgs07-Jun-2019 03:47 135  
[   ]ibeo_msgs07-Jun-2019 03:47 105  
[   ]kartech_linear_actuator_msgs07-Jun-2019 03:47 162  
[   ]mobileye_560_660_msgs07-Jun-2019 03:47 141  
[   ]neobotix_usboard_msgs07-Jun-2019 03:47 141  
[   ]pacmod_msgs07-Jun-2019 03:47 111  
[   ]radar_msgs07-Jun-2019 03:47 108  
[   ]raspimouse_control07-Jun-2019 03:50 132  
[   ]raspimouse_gazebo07-Jun-2019 03:50 129  
[   ]raspimouse_sim07-Jun-2019 03:50 120  
[   ]pr2_mechanism_msgs07-Jun-2019 03:50 132  
[   ]rqt_nav_view07-Jun-2019 03:52 114  
[   ]grasping_msgs07-Jun-2019 03:55 117  
[   ]rotors_comm07-Jun-2019 03:56 111  
[   ]rotors_control07-Jun-2019 03:56 120  
[   ]rotors_description07-Jun-2019 03:56 132  
[   ]rotors_evaluation07-Jun-2019 03:56 129  
[   ]rotors_gazebo07-Jun-2019 03:56 117  
[   ]rotors_gazebo_plugins07-Jun-2019 03:56 141  
[   ]rotors_hil_interface07-Jun-2019 03:56 138  
[   ]rotors_joy_interface07-Jun-2019 03:56 138  
[   ]rotors_simulator07-Jun-2019 03:56 126  
[   ]rqt_rotors07-Jun-2019 03:56 108  
[   ]rc_cloud_accumulator07-Jun-2019 03:57 138  
[   ]eigen_stl_containers07-Jun-2019 03:57 138  
[   ]tf_remapper_cpp07-Jun-2019 04:00 123  
[   ]ar_track_alvar07-Jun-2019 04:06 120  
[   ]ar_track_alvar_msgs07-Jun-2019 04:06 135  
[   ]teleop_twist_keyboard_cpp07-Jun-2019 05:26 153  
[   ]executive_smach07-Jun-2019 05:26 123  
[   ]smach_msgs07-Jun-2019 05:26 108  
[   ]geometry_tutorials07-Jun-2019 05:31 132  
[   ]turtle_tf07-Jun-2019 05:31 105  
[   ]turtle_tf207-Jun-2019 05:31 108  
[   ]arbotix07-Jun-2019 05:40 97  
[   ]arbotix_controllers07-Jun-2019 05:40 135  
[   ]arbotix_firmware07-Jun-2019 05:40 126  
[   ]arbotix_msgs07-Jun-2019 05:40 114  
[   ]arbotix_python07-Jun-2019 05:40 120  
[   ]arbotix_sensors07-Jun-2019 05:40 123  
[   ]xv_11_laser_driver07-Jun-2019 05:52 132  
[   ]nmea_msgs07-Jun-2019 05:53 105  
[   ]ecl_command_line07-Jun-2019 05:59 126  
[   ]ecl_concepts07-Jun-2019 05:59 114  
[   ]ecl_containers07-Jun-2019 05:59 120  
[   ]ecl_converters07-Jun-2019 05:59 120  
[   ]ecl_core07-Jun-2019 05:59 100  
[   ]ecl_core_apps07-Jun-2019 05:59 117  
[   ]ecl_devices07-Jun-2019 05:59 111  
[   ]ecl_eigen07-Jun-2019 05:59 105  
[   ]ecl_exceptions07-Jun-2019 05:59 120  
[   ]ecl_filesystem07-Jun-2019 05:59 120  
[   ]ecl_formatters07-Jun-2019 05:59 120  
[   ]ecl_geometry07-Jun-2019 05:59 114  
[   ]ecl_ipc07-Jun-2019 05:59 97  
[   ]ecl_linear_algebra07-Jun-2019 05:59 132  
[   ]ecl_math07-Jun-2019 05:59 100  
[   ]ecl_mpl07-Jun-2019 05:59 97  
[   ]ecl_sigslots07-Jun-2019 05:59 114  
[   ]ecl_statistics07-Jun-2019 05:59 120  
[   ]ecl_streams07-Jun-2019 05:59 111  
[   ]ecl_threads07-Jun-2019 05:59 111  
[   ]ecl_time07-Jun-2019 05:59 100  
[   ]ecl_type_traits07-Jun-2019 05:59 123  
[   ]ecl_utilities07-Jun-2019 05:59 117  
[   ]tuw_control08-Jun-2019 03:27 111  
[   ]pcl_msgs08-Jun-2019 03:28 100  
[   ]laser_pipeline08-Jun-2019 03:29 120  
[   ]tuw_geometry08-Jun-2019 03:32 114  
[   ]geneus08-Jun-2019 05:13 94  
[   ]ros_pytest08-Jun-2019 05:17 108  
[   ]dynamic_edt_3d08-Jun-2019 05:17 120  
[   ]octomap08-Jun-2019 05:17 97  
[   ]octovis08-Jun-2019 05:17 97  
[   ]pacmod_game_control08-Jun-2019 05:19 135  
[   ]mrpt_msgs08-Jun-2019 05:20 105  
[   ]cnn_bridge08-Jun-2019 05:20 108  
[   ]marker_msgs08-Jun-2019 05:20 111  
[   ]vrpn_client_ros08-Jun-2019 05:21 123  
[   ]cartographer08-Jun-2019 05:22 114  
[   ]ethercat_grant08-Jun-2019 05:22 120  
[   ]tuw_geometry_rviz08-Jun-2019 05:24 129  
[   ]tuw_nav_rviz08-Jun-2019 05:24 114  
[   ]tuw_object_rviz08-Jun-2019 05:24 123  
[   ]tuw_rviz08-Jun-2019 05:24 100  
[   ]ocean_battery_driver08-Jun-2019 05:25 138  
[   ]power_monitor08-Jun-2019 05:25 117  
[   ]pr2_power_board08-Jun-2019 05:25 123  
[   ]pr2_power_drivers08-Jun-2019 05:25 129  
[   ]media_export08-Jun-2019 05:25 114  
[   ]fmi_adapter08-Jun-2019 05:26 111  
[   ]fmi_adapter_examples08-Jun-2019 05:26 138  
[   ]gscam08-Jun-2019 05:27 91  
[   ]tf2_web_republisher08-Jun-2019 05:28 135  
[   ]fawkes_msgs08-Jun-2019 05:28 111  
[   ]view_controller_msgs08-Jun-2019 05:28 138  
[   ]openni_camera08-Jun-2019 05:28 117  
[   ]openni_description08-Jun-2019 05:28 132  
[   ]openni_launch08-Jun-2019 05:28 117  
[   ]cartographer_ros08-Jun-2019 05:28 126  
[   ]cartographer_ros_msgs08-Jun-2019 05:28 141  
[   ]cartographer_rviz08-Jun-2019 05:28 129  
[   ]dynamixel_workbench08-Jun-2019 05:30 135  
[   ]dynamixel_workbench_controllers08-Jun-2019 05:30 171  
[   ]dynamixel_workbench_operators08-Jun-2019 05:30 165  
[   ]dynamixel_workbench_single_manager08-Jun-2019 05:30 180  
[   ]dynamixel_workbench_single_manager_gui08-Jun-2019 05:30 192  
[   ]dynamixel_workbench_toolbox08-Jun-2019 05:30 159  
[   ]ibeo_lux08-Jun-2019 05:31 100  
[   ]map_merge_3d08-Jun-2019 05:31 114  
[   ]ecl08-Jun-2019 05:34 85  
[   ]ecl_manipulation08-Jun-2019 05:34 126  
[   ]ecl_manipulators08-Jun-2019 05:34 126  
[   ]rail_manipulation_msgs08-Jun-2019 05:36 144  
[   ]prbt_grippers08-Jun-2019 05:37 117  
[   ]prbt_pg70_support08-Jun-2019 05:37 129  
[   ]rqt_py_trees08-Jun-2019 05:37 114  
[   ]simple_grasping08-Jun-2019 05:40 123  
[   ]joint_trajectory_action_tools08-Jun-2019 05:42 165  
[   ]joint_trajectory_generator08-Jun-2019 05:42 156  
[   ]pr2_arm_move_ik08-Jun-2019 05:42 123  
[   ]pr2_common_actions08-Jun-2019 05:42 132  
[   ]pr2_tilt_laser_interface08-Jun-2019 05:42 150  
[   ]pr2_tuck_arms_action08-Jun-2019 05:42 138  
[   ]nonpersistent_voxel_layer09-Jun-2019 03:49 153  
[   ]qb_chain14-Jun-2019 03:15 100  
[   ]qb_chain_control14-Jun-2019 03:15 126  
[   ]qb_chain_controllers14-Jun-2019 03:15 166  
[   ]qb_chain_description14-Jun-2019 03:15 138  
[   ]eca_a9_control17-Jun-2019 03:30 120  
[   ]eca_a9_description17-Jun-2019 03:30 132  
[   ]eca_a9_gazebo17-Jun-2019 03:30 117  
[   ]teleop_keyboard_omni318-Jun-2019 03:32 141  
[   ]abseil_cpp19-Jun-2019 03:42 108  
[   ]pyros_test20-Jun-2019 03:32 108  
[   ]fetch_simple_linear_controller20-Jun-2019 03:57 168  
[   ]octomap_ros21-Jun-2019 03:43 111  
[   ]doosan_robot21-Jun-2019 03:44 114  
[   ]doosan_robotics21-Jun-2019 03:44 123  
[   ]dsr_bringup21-Jun-2019 03:44 111  
[   ]dsr_control21-Jun-2019 03:44 111  
[   ]dsr_description21-Jun-2019 03:44 123  
[   ]dsr_example_cpp21-Jun-2019 03:44 123  
[   ]dsr_example_py21-Jun-2019 03:44 120  
[   ]dsr_gazebo21-Jun-2019 03:44 108  
[   ]dsr_launcher21-Jun-2019 03:44 114  
[   ]dsr_msgs21-Jun-2019 03:44 100  
[   ]moveit_config_m060921-Jun-2019 03:44 135  
[   ]moveit_config_m061721-Jun-2019 03:44 135  
[   ]moveit_config_m101321-Jun-2019 03:44 135  
[   ]moveit_config_m150921-Jun-2019 03:44 135  
[   ]laser_assembler28-Jun-2019 03:31 123  
[   ]omronsentech_camera28-Jun-2019 03:31 175  
[   ]drone_client01-Jul-2019 03:44 114  
[   ]drone_server01-Jul-2019 03:44 114  
[   ]microstrain_3dmgx2_imu03-Jul-2019 03:19 144  
[   ]flir_boson_usb03-Jul-2019 03:55 120  
[   ]teb_local_planner_tutorials06-Jul-2019 03:55 159  
[   ]ntpd_driver09-Jul-2019 04:52 111  
[   ]libuvc_camera09-Jul-2019 04:55 117  
[   ]libuvc_ros09-Jul-2019 04:55 108  
[   ]tuw_multi_robot11-Jul-2019 03:43 123  
[   ]tuw_multi_robot_ctrl11-Jul-2019 03:43 138  
[   ]tuw_multi_robot_demo11-Jul-2019 03:43 138  
[   ]tuw_multi_robot_goal_generator11-Jul-2019 03:43 168  
[   ]tuw_multi_robot_local_behavior_controller11-Jul-2019 03:43 201  
[   ]tuw_multi_robot_router11-Jul-2019 03:43 144  
[   ]tuw_multi_robot_rviz11-Jul-2019 03:43 138  
[   ]tuw_voronoi_graph11-Jul-2019 03:43 129  
[   ]libfranka12-Jul-2019 03:14 105  
[   ]pipeline_planner12-Jul-2019 03:38 126  
[   ]openslam_gmapping13-Jul-2019 03:20 129  
[   ]nmea_gps_plugin17-Jul-2019 03:51 123  
[   ]quaternion_operation18-Jul-2019 03:27 138  
[   ]interactive_marker_twist_server18-Jul-2019 03:40 171  
[   ]clock_relay19-Jul-2019 03:29 111  
[   ]cpr_multimaster_tools19-Jul-2019 03:29 141  
[   ]message_relay19-Jul-2019 03:29 117  
[   ]multimaster_launch19-Jul-2019 03:29 132  
[   ]multimaster_msgs19-Jul-2019 03:29 126  
[   ]tf2_relay19-Jul-2019 03:29 105  
[   ]octomap_rviz_plugins19-Jul-2019 03:51 138  
[   ]lms1xx20-Jul-2019 03:14 94  
[   ]rqt_app_example27-Jul-2019 03:37 123  
[   ]ethercat_hardware28-Jul-2019 03:18 129  
[   ]fingertip_pressure28-Jul-2019 03:18 132  
[   ]pr2_ethercat_drivers28-Jul-2019 03:18 138  
[   ]warthog_desktop01-Aug-2019 03:21 123  
[   ]warthog_viz01-Aug-2019 03:21 111  
[   ]mavlink02-Aug-2019 03:39 97  
[   ]jackal_desktop02-Aug-2019 03:48 120  
[   ]jackal_viz02-Aug-2019 03:48 108  
[   ]ridgeback_desktop03-Aug-2019 03:40 129  
[   ]ridgeback_viz03-Aug-2019 03:40 117  
[   ]rosparam_handler03-Aug-2019 03:56 126  
[   ]nmea_comms05-Aug-2019 03:48 108  
[   ]sdhlibrary_cpp19-Aug-2019 03:41 120  
[   ]ecl_build23-Aug-2019 03:19 105  
[   ]ecl_license23-Aug-2019 03:19 111  
[   ]ecl_tools23-Aug-2019 03:19 105  
[   ]novatel_msgs28-Aug-2019 03:53 114  
[   ]novatel_span_driver28-Aug-2019 03:53 135  
[   ]tensorflow_ros_cpp01-Sep-2019 03:52 132  
[   ]rxcpp_vendor02-Sep-2019 03:21 114  
[   ]face_detector02-Sep-2019 03:41 117  
[   ]leg_detector02-Sep-2019 03:41 114  
[   ]people02-Sep-2019 03:41 94  
[   ]people_msgs02-Sep-2019 03:41 111  
[   ]people_tracking_filter02-Sep-2019 03:41 144  
[   ]people_velocity_tracker02-Sep-2019 03:41 147  
[   ]pointcloud_to_laserscan03-Sep-2019 03:49 147  
[   ]network_interface06-Sep-2019 03:56 129  
[   ]rostate_machine06-Sep-2019 03:59 123  
[   ]xsens_driver08-Sep-2019 03:16 114  
[   ]actionlib11-Sep-2019 03:37 105  
[   ]lanelet2_msgs12-Sep-2019 03:56 117  
[   ]tts19-Sep-2019 03:20 85  
[   ]lex_common19-Sep-2019 03:24 108  
[   ]kinesis_manager19-Sep-2019 03:31 123  
[   ]kinesis_video_msgs20-Sep-2019 03:14 132  
[   ]kinesis_video_streamer20-Sep-2019 03:14 144  
[   ]h264_video_encoder20-Sep-2019 03:19 132  
[   ]industrial_core20-Sep-2019 03:24 123  
[   ]industrial_deprecated20-Sep-2019 03:24 141  
[   ]industrial_msgs20-Sep-2019 03:24 123  
[   ]industrial_robot_client20-Sep-2019 03:24 147  
[   ]industrial_robot_simulator20-Sep-2019 03:24 156  
[   ]industrial_trajectory_filters20-Sep-2019 03:24 165  
[   ]industrial_utils20-Sep-2019 03:24 126  
[   ]simple_message20-Sep-2019 03:24 120  
[   ]ros_monitoring_msgs21-Sep-2019 03:28 135  
[   ]fkie_message_filters21-Sep-2019 03:50 138  
[   ]compressed_depth_image_transport22-Sep-2019 03:28 174  
[   ]compressed_image_transport22-Sep-2019 03:28 156  
[   ]image_transport_plugins22-Sep-2019 03:28 147  
[   ]theora_image_transport22-Sep-2019 03:28 144  
[   ]haros_catkin24-Sep-2019 03:19 114  
[   ]um628-Sep-2019 03:49 85  
[   ]tuw_airskin_msgs01-Oct-2019 03:11 126  
[   ]tuw_gazebo_msgs01-Oct-2019 03:11 123  
[   ]tuw_geometry_msgs01-Oct-2019 03:11 129  
[   ]tuw_local_controller_msgs01-Oct-2019 03:12 153  
[   ]tuw_msgs01-Oct-2019 03:12 100  
[   ]tuw_multi_robot_msgs01-Oct-2019 03:12 138  
[   ]tuw_nav_msgs01-Oct-2019 03:12 114  
[   ]tuw_object_msgs01-Oct-2019 03:12 123  
[   ]tuw_vehicle_msgs01-Oct-2019 03:12 126  
[   ]tuw_waypoint_to_spline_msgs01-Oct-2019 03:12 159  
[   ]niryo_one_description01-Oct-2019 03:12 141  
[   ]niryo_one_gazebo01-Oct-2019 03:12 126  
[   ]niryo_one_moveit_config01-Oct-2019 03:12 147  
[   ]niryo_one_ros_simulation01-Oct-2019 03:12 150  
[   ]ros_environment04-Oct-2019 03:49 123  
[   ]qb_device08-Oct-2019 04:10 105  
[   ]qb_device_bringup08-Oct-2019 04:10 129  
[   ]qb_device_control08-Oct-2019 04:10 157  
[   ]qb_device_description08-Oct-2019 04:10 141  
[   ]qb_device_driver08-Oct-2019 04:10 154  
[   ]qb_device_hardware_interface08-Oct-2019 04:10 190  
[   ]qb_device_msgs08-Oct-2019 04:10 120  
[   ]qb_device_srvs08-Oct-2019 04:10 120  
[   ]qb_device_utils08-Oct-2019 04:10 151  
[   ]qb_move09-Oct-2019 03:24 97  
[   ]qb_move_control09-Oct-2019 03:24 151  
[   ]qb_move_description09-Oct-2019 03:24 135  
[   ]qb_move_hardware_interface09-Oct-2019 03:24 184  
[   ]qpoases_vendor17-Oct-2019 03:45 120  
[   ]fetch_open_auto_dock26-Oct-2019 03:26 138  
[   ]rail_mesh_icp01-Nov-2019 03:36 117  
[   ]vision_visp03-Nov-2019 03:29 111  
[   ]visp_auto_tracker03-Nov-2019 03:29 157  
[   ]visp_bridge03-Nov-2019 03:29 111  
[   ]visp_camera_calibration03-Nov-2019 03:29 147  
[   ]visp_hand2eye_calibration03-Nov-2019 03:29 153  
[   ]visp_tracker03-Nov-2019 03:29 142  
[   ]tuw_aruco03-Nov-2019 03:35 105  
[   ]tuw_checkerboard03-Nov-2019 03:35 126  
[   ]tuw_ellipses03-Nov-2019 03:35 114  
[   ]tuw_marker_detection03-Nov-2019 03:35 138  
[   ]tuw_marker_pose_estimation03-Nov-2019 03:35 156  
[   ]h264_encoder_core03-Nov-2019 03:44 129  
[   ]depth_image_proc07-Nov-2019 03:23 126  
[   ]image_pipeline07-Nov-2019 03:23 120  
[   ]image_proc07-Nov-2019 03:23 108  
[   ]image_publisher07-Nov-2019 03:23 123  
[   ]image_rotate07-Nov-2019 03:23 114  
[   ]image_view07-Nov-2019 03:23 136  
[   ]stereo_image_proc07-Nov-2019 03:23 157  
[   ]ros_introspection07-Nov-2019 03:50 129  
[   ]roscompile07-Nov-2019 03:50 108  
[   ]can_msgs07-Nov-2019 03:53 100  
[   ]canopen_40207-Nov-2019 03:53 111  
[   ]canopen_chain_node07-Nov-2019 03:53 132  
[   ]canopen_master07-Nov-2019 03:53 120  
[   ]canopen_motor_node07-Nov-2019 03:53 132  
[   ]ros_canopen07-Nov-2019 03:53 111  
[   ]socketcan_bridge07-Nov-2019 03:54 126  
[   ]socketcan_interface07-Nov-2019 03:54 135  
[   ]turtlesim_dash_tutorial10-Nov-2019 03:18 147  
[   ]swri_profiler12-Nov-2019 03:20 117  
[   ]swri_profiler_msgs12-Nov-2019 03:20 132  
[   ]swri_profiler_tools12-Nov-2019 03:20 135  
[   ]ubiquity_motor12-Nov-2019 03:28 120  
[   ]dbw_mkz_twist_controller13-Nov-2019 03:52 150  
[   ]fetch_tools16-Nov-2019 04:02 111  
[   ]baylands21-Nov-2019 03:20 100  
[   ]ksql_airport21-Nov-2019 03:20 114  
[   ]mcmillan_airfield21-Nov-2019 03:20 129  
[   ]sand_island21-Nov-2019 03:20 111  
[   ]yosemite_valley21-Nov-2019 03:20 123  
[   ]laptop_battery_monitor22-Nov-2019 03:14 144  
[   ]libsensors_monitor22-Nov-2019 03:14 132  
[   ]linux_peripheral_interfaces22-Nov-2019 03:14 159  
[   ]laser_tilt_controller_filter23-Nov-2019 03:21 162  
[   ]pr2_move_base23-Nov-2019 03:21 117  
[   ]pr2_navigation23-Nov-2019 03:21 120  
[   ]pr2_navigation_config23-Nov-2019 03:21 141  
[   ]pr2_navigation_global23-Nov-2019 03:21 141  
[   ]pr2_navigation_local23-Nov-2019 03:21 138  
[   ]pr2_navigation_perception23-Nov-2019 03:21 153  
[   ]pr2_navigation_self_filter23-Nov-2019 03:21 156  
[   ]pr2_navigation_slam23-Nov-2019 03:21 135  
[   ]pr2_navigation_teleop23-Nov-2019 03:21 141  
[   ]semantic_point_annotator23-Nov-2019 03:21 150  
[   ]bta_tof_driver23-Nov-2019 03:53 120  
[   ]schunk_description24-Nov-2019 03:23 132  
[   ]schunk_libm5api24-Nov-2019 03:23 123  
[   ]schunk_modular_robotics24-Nov-2019 03:23 147  
[   ]schunk_powercube_chain24-Nov-2019 03:23 144  
[   ]schunk_sdh24-Nov-2019 03:23 108  
[   ]schunk_simulated_tactile_sensors24-Nov-2019 03:23 174  
[   ]edrone_client01-Dec-2019 03:45 117  
[   ]edrone_server01-Dec-2019 03:45 117  
[   ]eyantra_drone01-Dec-2019 03:45 117  
[   ]cis_camera06-Dec-2019 03:34 108  
[   ]libcreate06-Dec-2019 03:50 105  
[   ]dockeros09-Dec-2019 21:12 100  
[   ]blender_gazebo09-Dec-2019 21:16 120  
[   ]ml_classifiers15-Dec-2019 04:01 120  
[   ]caster_app16-Dec-2019 03:11 108  
[   ]caster_base16-Dec-2019 03:11 111  
[   ]caster_control16-Dec-2019 03:11 120  
[   ]caster_description16-Dec-2019 03:11 132  
[   ]caster_desktop16-Dec-2019 03:11 120  
[   ]caster_navigation16-Dec-2019 03:11 129  
[   ]caster_robot16-Dec-2019 03:11 114  
[   ]caster_teleop16-Dec-2019 03:11 117  
[   ]caster_viz16-Dec-2019 03:11 108  
[   ]tracetools19-Dec-2019 03:37 136  
[   ]vtec_msgs19-Dec-2019 03:48 105  
[   ]vtec_ros19-Dec-2019 03:48 100  
[   ]vtec_tracker19-Dec-2019 03:48 114  
[   ]microstrain_mips20-Dec-2019 03:18 154  
[   ]safe_teleop_base21-Dec-2019 03:12 126  
[   ]safe_teleop_pr221-Dec-2019 03:12 123  
[   ]safe_teleop_stage21-Dec-2019 03:12 129  
[   ]fake_joint21-Dec-2019 04:09 108  
[   ]fake_joint_driver21-Dec-2019 04:09 129  
[   ]fake_joint_launch21-Dec-2019 04:09 129  
[   ]pose_cov_ops26-Dec-2019 03:16 114  
[   ]rplidar_ros01-Jan-2020 03:11 111  
[   ]radar_pa03-Jan-2020 03:54 100  
[   ]radar_pa_msgs03-Jan-2020 03:54 117  
[   ]asr_msgs04-Jan-2020 03:45 100  
[   ]naoqi_bridge_msgs10-Jan-2020 04:00 129  
[   ]asr_mild_navigation11-Jan-2020 03:16 135  
[   ]asr_aruco_marker_recognition11-Jan-2020 03:17 162  
[   ]asr_kinematic_chain_dome11-Jan-2020 03:19 150  
[   ]asr_grid_creator11-Jan-2020 03:22 126  
[   ]asr_lib_ism11-Jan-2020 03:22 111  
[   ]asr_relation_graph_generator11-Jan-2020 03:30 162  
[   ]asr_object_database11-Jan-2020 03:30 135  
[   ]asr_mild_base_driving11-Jan-2020 03:35 141  
[   ]rosfmt11-Jan-2020 03:35 94  
[   ]asr_rapidxml11-Jan-2020 03:45 114  
[   ]asr_sick_lms_40011-Jan-2020 03:48 126  
[   ]asr_world_model11-Jan-2020 03:50 123  
[   ]asr_resources_for_psm11-Jan-2020 03:51 141  
[   ]asr_navfn11-Jan-2020 04:03 105  
[   ]asr_mild_base_laserscanner13-Jan-2020 18:39 156  
[   ]asr_flock_of_birds13-Jan-2020 18:39 132  
[   ]asr_calibration_tool_dome13-Jan-2020 18:40 153  
[   ]asr_robot13-Jan-2020 19:31 105  
[   ]asr_resources_for_vision13-Jan-2020 19:32 150  
[   ]asr_visualization_server13-Jan-2020 19:33 150  
[   ]asr_flir_ptu_controller13-Jan-2020 19:34 147  
[   ]asr_gazebo_models13-Jan-2020 19:34 129  
[   ]asr_ism_visualizations13-Jan-2020 19:34 144  
[   ]asr_ros_uri13-Jan-2020 19:34 111  
[   ]asr_psm13-Jan-2020 19:35 97  
[   ]asr_intermediate_object_generator13-Jan-2020 19:35 177  
[   ]asr_lib_pose_prediction_ism13-Jan-2020 19:35 159  
[   ]asr_kinematic_chain_optimizer13-Jan-2020 19:35 165  
[   ]asr_ftc_local_planner13-Jan-2020 19:35 141  
[   ]asr_recognizer_prediction_ism13-Jan-2020 19:36 165  
[   ]asr_direct_search_manager13-Jan-2020 19:36 153  
[   ]asr_cyberglove_visualization13-Jan-2020 19:37 162  
[   ]asr_mild_kinematic_chain13-Jan-2020 19:37 150  
[   ]asr_cyberglove_lib13-Jan-2020 19:37 132  
[   ]asr_rviz_pose_manager13-Jan-2020 19:37 141  
[   ]asr_xsd2cpp13-Jan-2020 19:37 111  
[   ]asr_robot_model_services13-Jan-2020 19:37 150  
[   ]asr_descriptor_surface_based_recognition13-Jan-2020 19:37 198  
[   ]asr_ivt13-Jan-2020 19:37 97  
[   ]asr_mild_calibration_tool13-Jan-2020 19:37 153  
[   ]asr_mild_base_launch_files13-Jan-2020 19:38 156  
[   ]asr_psm_visualizations13-Jan-2020 19:38 144  
[   ]asr_flir_ptu_driver13-Jan-2020 19:39 135  
[   ]asr_ivt_bridge13-Jan-2020 19:39 120  
[   ]asr_ism13-Jan-2020 19:39 97  
[   ]asr_next_best_view14-Jan-2020 03:48 132  
[   ]kobuki_core17-Jan-2020 04:01 111  
[   ]kobuki_dock_drive17-Jan-2020 04:01 129  
[   ]kobuki_driver17-Jan-2020 04:01 117  
[   ]kobuki_ftdi17-Jan-2020 04:01 111  
[   ]test_osm19-Jan-2020 03:13 100  
[   ]staubli21-Jan-2020 03:41 97  
[   ]staubli_resources21-Jan-2020 03:41 129  
[   ]staubli_rx160_moveit_config21-Jan-2020 03:41 159  
[   ]staubli_rx160_moveit_plugins21-Jan-2020 03:41 162  
[   ]staubli_rx160_support21-Jan-2020 03:41 141  
[   ]kobuki_msgs21-Jan-2020 03:43 111  
[   ]mav_comm23-Jan-2020 03:18 100  
[   ]mav_msgs23-Jan-2020 03:18 100  
[   ]mav_planning_msgs23-Jan-2020 03:18 129  
[   ]mav_state_machine_msgs23-Jan-2020 03:18 144  
[   ]mav_system_msgs23-Jan-2020 03:18 123  
[   ]genlisp26-Jan-2020 03:32 97  
[   ]gennodejs27-Jan-2020 03:58 105  
[   ]message_runtime28-Jan-2020 03:33 123  
[   ]fanuc28-Jan-2020 03:48 91  
[   ]fanuc_cr7ia_moveit_config28-Jan-2020 03:48 153  
[   ]fanuc_cr7ia_support28-Jan-2020 03:48 135  
[   ]fanuc_cr7ial_moveit_config28-Jan-2020 03:48 156  
[   ]fanuc_cr35ia_support28-Jan-2020 03:48 138  
[   ]fanuc_driver28-Jan-2020 03:48 114  
[   ]fanuc_lrmate200i_moveit_config28-Jan-2020 03:48 168  
[   ]fanuc_lrmate200i_moveit_plugins28-Jan-2020 03:48 171  
[   ]fanuc_lrmate200i_support28-Jan-2020 03:48 150  
[   ]fanuc_lrmate200ib3l_moveit_config28-Jan-2020 03:48 177  
[   ]fanuc_lrmate200ib_moveit_config28-Jan-2020 03:48 171  
[   ]fanuc_lrmate200ib_moveit_plugins28-Jan-2020 03:48 174  
[   ]fanuc_lrmate200ib_support28-Jan-2020 03:48 153  
[   ]fanuc_lrmate200ic5h_moveit_config28-Jan-2020 03:48 177  
[   ]fanuc_lrmate200ic5l_moveit_config28-Jan-2020 03:48 177  
[   ]fanuc_lrmate200ic_moveit_config28-Jan-2020 03:48 171  
[   ]fanuc_lrmate200ic_moveit_plugins28-Jan-2020 03:48 174  
[   ]fanuc_lrmate200ic_support28-Jan-2020 03:48 153  
[   ]fanuc_m10ia_moveit_config28-Jan-2020 03:48 153  
[   ]fanuc_m10ia_moveit_plugins28-Jan-2020 03:48 156  
[   ]fanuc_m10ia_support28-Jan-2020 03:48 135  
[   ]fanuc_m16ib20_moveit_config28-Jan-2020 03:48 159  
[   ]fanuc_m16ib_moveit_plugins28-Jan-2020 03:48 156  
[   ]fanuc_m16ib_support28-Jan-2020 03:48 135  
[   ]fanuc_m20ia10l_moveit_config28-Jan-2020 03:48 162  
[   ]fanuc_m20ia_moveit_config28-Jan-2020 03:48 153  
[   ]fanuc_m20ia_moveit_plugins28-Jan-2020 03:48 156  
[   ]fanuc_m20ia_support28-Jan-2020 03:48 135  
[   ]fanuc_m20ib25_moveit_config28-Jan-2020 03:48 159  
[   ]fanuc_m20ib_moveit_plugins28-Jan-2020 03:48 156  
[   ]fanuc_m20ib_support28-Jan-2020 03:48 135  
[   ]fanuc_m430ia2f_moveit_config28-Jan-2020 03:48 162  
[   ]fanuc_m430ia2p_moveit_config28-Jan-2020 03:48 162  
[   ]fanuc_m430ia_moveit_plugins28-Jan-2020 03:48 159  
[   ]fanuc_m6ib_moveit_config28-Jan-2020 03:48 150  
[   ]fanuc_m6ib_moveit_plugins28-Jan-2020 03:48 153  
[   ]fanuc_m6ib_support28-Jan-2020 03:48 132  
[   ]fanuc_m430ia_support28-Jan-2020 03:48 138  
[   ]fanuc_m710ic_support28-Jan-2020 03:48 138  
[   ]fanuc_m900ia_support28-Jan-2020 03:48 138  
[   ]fanuc_m900ib_support28-Jan-2020 03:48 138  
[   ]fanuc_r1000ia80f_moveit_config28-Jan-2020 03:48 168  
[   ]fanuc_r1000ia_moveit_plugins28-Jan-2020 03:48 162  
[   ]fanuc_r1000ia_support28-Jan-2020 03:48 141  
[   ]fanuc_resources28-Jan-2020 03:48 123  
[   ]ensenso_camera06-Feb-2020 03:15 120  
[   ]ensenso_camera_msgs06-Feb-2020 03:15 135  
[   ]ensenso_camera_test06-Feb-2020 03:15 135  
[   ]ensenso_description06-Feb-2020 03:15 135  
[   ]ensenso_driver06-Feb-2020 03:15 120  
[   ]asr_state_machine06-Feb-2020 03:32 129  
[   ]franka_control07-Feb-2020 04:04 120  
[   ]franka_description07-Feb-2020 04:04 132  
[   ]franka_example_controllers07-Feb-2020 04:04 156  
[   ]franka_gripper07-Feb-2020 04:04 120  
[   ]franka_hw07-Feb-2020 04:04 105  
[   ]franka_msgs07-Feb-2020 04:04 111  
[   ]franka_ros07-Feb-2020 04:04 108  
[   ]franka_visualization07-Feb-2020 04:04 138  
[   ]class_loader08-Feb-2020 03:21 114  
[   ]filters08-Feb-2020 03:40 97  
[   ]fsrobo_r08-Feb-2020 03:41 100  
[   ]fsrobo_r_bringup08-Feb-2020 03:41 126  
[   ]fsrobo_r_description08-Feb-2020 03:41 138  
[   ]fsrobo_r_driver08-Feb-2020 03:41 123  
[   ]fsrobo_r_moveit_config08-Feb-2020 03:41 144  
[   ]fsrobo_r_msgs08-Feb-2020 03:41 117  
[   ]fsrobo_r_trajectory_filters08-Feb-2020 03:41 159  
[   ]actionlib_msgs09-Feb-2020 03:18 120  
[   ]common_msgs09-Feb-2020 03:18 111  
[   ]diagnostic_msgs09-Feb-2020 03:18 123  
[   ]geometry_msgs09-Feb-2020 03:18 117  
[   ]nav_msgs09-Feb-2020 03:18 100  
[   ]sensor_msgs09-Feb-2020 03:18 111  
[   ]shape_msgs09-Feb-2020 03:18 108  
[   ]stereo_msgs09-Feb-2020 03:18 111  
[   ]trajectory_msgs09-Feb-2020 03:18 123  
[   ]visualization_msgs09-Feb-2020 03:18 132  
[   ]um711-Feb-2020 03:13 85  
[   ]rosgraph_msgs11-Feb-2020 03:21 117  
[   ]std_srvs11-Feb-2020 03:21 100  
[   ]industrial_robot_status_controller12-Feb-2020 03:19 180  
[   ]industrial_robot_status_interface12-Feb-2020 03:19 177  
[   ]aws_ros1_common12-Feb-2020 03:25 123  
[   ]pacmod12-Feb-2020 03:57 94  
[   ]webkit_dependency13-Feb-2020 03:13 129  
[   ]message_generation13-Feb-2020 03:44 132  
[   ]gl_dependency13-Feb-2020 03:50 117  
[   ]std_msgs13-Feb-2020 04:02 100  
[   ]rosconsole_bridge14-Feb-2020 09:37 129  
[   ]pluginlib15-Feb-2020 04:01 105  
[   ]ira_laser_tools16-Feb-2020 03:14 123  
[   ]resource_retriever16-Feb-2020 03:36 132  
[   ]rail_segmentation16-Feb-2020 03:43 129  
[   ]naoqi_driver16-Feb-2020 03:51 114  
[   ]asr_resources_for_active_scene_recognition18-Feb-2020 03:14 204  
[   ]asr_mild_base_fake_driving18-Feb-2020 03:16 156  
[   ]asr_recognizer_prediction_psm18-Feb-2020 03:19 165  
[   ]asr_fake_object_recognition18-Feb-2020 03:24 159  
[   ]asr_flock_of_birds_tracking18-Feb-2020 03:31 159  
[   ]seed_smartactuator_sdk20-Feb-2020 03:37 144  
[   ]euslisp21-Feb-2020 03:16 97  
[   ]eband_local_planner21-Feb-2020 04:00 135  
[   ]orocos_kinematics_dynamics22-Feb-2020 03:23 156  
[   ]ubnt_airos_tools22-Feb-2020 03:44 126  
[   ]iirob_filters26-Feb-2020 03:33 117  
[   ]nmea_navsat_driver26-Feb-2020 04:00 132  
[   ]ati_force_torque27-Feb-2020 03:19 126  
[   ]mrpt_bridge27-Feb-2020 03:29 111  
[   ]mikrotik_swos_tools28-Feb-2020 03:49 135  
[   ]force_torque_sensor28-Feb-2020 03:53 135  
[   ]dynamic_tf_publisher03-Mar-2020 03:16 138  
[   ]image_view203-Mar-2020 03:16 111  
[   ]jsk_common03-Mar-2020 03:16 108  
[   ]jsk_data03-Mar-2020 03:16 100  
[   ]jsk_network_tools03-Mar-2020 03:16 129  
[   ]jsk_tilt_laser03-Mar-2020 03:16 120  
[   ]jsk_topic_tools03-Mar-2020 03:16 123  
[   ]multi_map_server03-Mar-2020 03:16 126  
[   ]virtual_force_publisher03-Mar-2020 03:16 147  
[   ]ros_numpy05-Mar-2020 03:41 105  
[   ]qwt_dependency05-Mar-2020 03:49 120  
[   ]jackal_cartographer_navigation06-Mar-2020 03:23 168  
[   ]ridgeback_cartographer_navigation06-Mar-2020 03:23 177  
[   ]ridgeback_control07-Mar-2020 03:36 129  
[   ]ridgeback_description07-Mar-2020 03:36 141  
[   ]ridgeback_msgs07-Mar-2020 03:36 120  
[   ]ridgeback_navigation07-Mar-2020 03:36 138  
[   ]carla_msgs08-Mar-2020 03:18 108  
[   ]urdf08-Mar-2020 03:56 88  
[   ]urdf_parser_plugin08-Mar-2020 03:56 132  
[   ]mrt_cmake_modules10-Mar-2020 03:54 129  
[   ]mrpt_local_obstacles10-Mar-2020 04:04 138  
[   ]mrpt_localization10-Mar-2020 04:04 129  
[   ]mrpt_map10-Mar-2020 04:04 100  
[   ]mrpt_navigation10-Mar-2020 04:04 123  
[   ]mrpt_rawlog10-Mar-2020 04:04 111  
[   ]mrpt_reactivenav2d10-Mar-2020 04:04 132  
[   ]mrpt_tutorials10-Mar-2020 04:04 120  
[   ]map_msgs11-Mar-2020 03:28 100  
[   ]move_base_msgs11-Mar-2020 03:28 120  
[   ]joint_state_publisher13-Mar-2020 03:12 141  
[   ]joint_state_publisher_gui13-Mar-2020 03:12 153  
[   ]pouco2000_ros13-Mar-2020 03:22 117  
[   ]pouco2000_ros_demo13-Mar-2020 03:22 132  
[   ]pouco2000_ros_gazebo13-Mar-2020 03:22 138  
[   ]pouco2000_ros_msgs13-Mar-2020 03:22 132  
[   ]pouco2000_ros_tools13-Mar-2020 03:22 135  
[   ]eigen_conversions13-Mar-2020 03:29 129  
[   ]geometry13-Mar-2020 03:29 100  
[   ]kdl_conversions13-Mar-2020 03:29 123  
[   ]tf13-Mar-2020 03:29 142  
[   ]tf_conversions13-Mar-2020 03:29 178  
[   ]ipr_extern13-Mar-2020 03:57 108  
[   ]libmodbus13-Mar-2020 03:57 105  
[   ]libreflexxestype213-Mar-2020 03:57 129  
[   ]ros_reflexxes13-Mar-2020 03:57 117  
[   ]angles14-Mar-2020 03:24 94  
[   ]staubli_experimental14-Mar-2020 04:02 138  
[   ]staubli_rx160_gazebo14-Mar-2020 04:02 138  
[   ]staubli_tx2_60_support14-Mar-2020 04:02 144  
[   ]staubli_tx2_90_support14-Mar-2020 04:02 144  
[   ]staubli_tx60_gazebo14-Mar-2020 04:02 135  
[   ]staubli_tx60_support14-Mar-2020 04:02 138  
[   ]staubli_tx90_gazebo14-Mar-2020 04:02 135  
[   ]staubli_tx90_support14-Mar-2020 04:02 138  
[   ]roslint17-Mar-2020 03:30 97  
[   ]rqt_action18-Mar-2020 03:23 108  
[   ]gmapping18-Mar-2020 03:57 100  
[   ]slam_gmapping18-Mar-2020 03:57 117  
[   ]laser_filters19-Mar-2020 03:11 117  
[   ]cob_collision_monitor19-Mar-2020 03:14 141  
[   ]cob_grasp_generation19-Mar-2020 03:14 138  
[   ]cob_lookat_action19-Mar-2020 03:14 129  
[   ]cob_manipulation19-Mar-2020 03:14 126  
[   ]cob_moveit_bringup19-Mar-2020 03:14 132  
[   ]cob_moveit_interface19-Mar-2020 03:14 138  
[   ]cob_obstacle_distance_moveit19-Mar-2020 03:14 162  
[   ]cob_docker_control19-Mar-2020 03:26 132  
[   ]cob_reflector_referencing19-Mar-2020 03:26 153  
[   ]cob_safety_controller19-Mar-2020 03:26 141  
[   ]cob_substitute19-Mar-2020 03:26 120  
[   ]cob_supported_robots19-Mar-2020 03:31 138  
[   ]async_comm19-Mar-2020 03:33 108  
[   ]lex_common_msgs19-Mar-2020 03:42 123  
[   ]lex_node19-Mar-2020 03:42 100  
[   ]cob_gazebo_plugins20-Mar-2020 03:13 132  
[   ]cob_gazebo_ros_control20-Mar-2020 03:13 144  
[   ]cob_3d_mapping_msgs20-Mar-2020 03:22 135  
[   ]cob_cam3d_throttle20-Mar-2020 03:22 132  
[   ]cob_image_flip20-Mar-2020 03:22 120  
[   ]cob_object_detection_msgs20-Mar-2020 03:22 153  
[   ]cob_object_detection_visualizer20-Mar-2020 03:22 171  
[   ]cob_perception_common20-Mar-2020 03:22 141  
[   ]cob_perception_msgs20-Mar-2020 03:22 135  
[   ]cob_vision_utils20-Mar-2020 03:22 126  
[   ]ipa_3d_fov_visualization20-Mar-2020 03:22 150  
[   ]cob_android20-Mar-2020 03:22 111  
[   ]cob_android_msgs20-Mar-2020 03:22 126  
[   ]cob_android_resource_server20-Mar-2020 03:22 159  
[   ]cob_android_script_server20-Mar-2020 03:22 153  
[   ]cob_android_settings20-Mar-2020 03:22 138  
[   ]cob_default_env_config20-Mar-2020 03:23 144  
[   ]cob_environments20-Mar-2020 03:23 126  
[   ]cob_base_drive_chain20-Mar-2020 03:23 138  
[   ]cob_bms_driver20-Mar-2020 03:23 120  
[   ]cob_camera_sensors20-Mar-2020 03:23 132  
[   ]cob_canopen_motor20-Mar-2020 03:23 129  
[   ]cob_driver20-Mar-2020 03:23 108  
[   ]cob_elmo_homing20-Mar-2020 03:23 123  
[   ]cob_generic_can20-Mar-2020 03:23 123  
[   ]cob_light20-Mar-2020 03:23 105  
[   ]cob_mimic20-Mar-2020 03:23 105  
[   ]cob_phidget_em_state20-Mar-2020 03:23 138  
[   ]cob_phidget_power_state20-Mar-2020 03:23 147  
[   ]cob_phidgets20-Mar-2020 03:23 114  
[   ]cob_relayboard20-Mar-2020 03:23 120  
[   ]cob_scan_unifier20-Mar-2020 03:23 126  
[   ]cob_sick_lms1xx20-Mar-2020 03:23 123  
[   ]cob_sick_s30020-Mar-2020 03:23 117  
[   ]cob_sound20-Mar-2020 03:23 105  
[   ]cob_undercarriage_ctrl20-Mar-2020 03:23 144  
[   ]cob_utilities20-Mar-2020 03:23 117  
[   ]cob_voltage_control20-Mar-2020 03:23 135  
[   ]laser_scan_densifier20-Mar-2020 03:23 138  
[   ]cob_bringup20-Mar-2020 03:27 111  
[   ]cob_default_robot_behavior20-Mar-2020 03:27 156  
[   ]cob_default_robot_config20-Mar-2020 03:27 150  
[   ]cob_hardware_config20-Mar-2020 03:27 135  
[   ]cob_moveit_config20-Mar-2020 03:27 129  
[   ]cob_robots20-Mar-2020 03:27 108  
[   ]cob_command_gui20-Mar-2020 03:28 123  
[   ]cob_command_tools20-Mar-2020 03:28 129  
[   ]cob_dashboard20-Mar-2020 03:28 117  
[   ]cob_helper_tools20-Mar-2020 03:28 126  
[   ]cob_interactive_teleop20-Mar-2020 03:28 204  
[   ]cob_monitoring20-Mar-2020 03:28 120  
[   ]cob_script_server20-Mar-2020 03:28 129  
[   ]cob_teleop20-Mar-2020 03:28 108  
[   ]generic_throttle20-Mar-2020 03:28 126  
[   ]scenario_test_tools20-Mar-2020 03:28 135  
[   ]service_tools20-Mar-2020 03:28 117  
[   ]cob_linear_nav20-Mar-2020 03:39 120  
[   ]cob_map_accessibility_analysis20-Mar-2020 03:39 168  
[   ]cob_mapping_slam20-Mar-2020 03:39 126  
[   ]cob_navigation20-Mar-2020 03:39 120  
[   ]cob_navigation_config20-Mar-2020 03:39 141  
[   ]cob_navigation_global20-Mar-2020 03:39 141  
[   ]cob_navigation_local20-Mar-2020 03:39 138  
[   ]cob_navigation_slam20-Mar-2020 03:39 135  
[   ]hw_bridge20-Mar-2020 03:40 105  
[   ]toposens20-Mar-2020 03:49 100  
[   ]toposens_description20-Mar-2020 03:49 138  
[   ]toposens_driver20-Mar-2020 03:49 163  
[   ]toposens_markers20-Mar-2020 03:49 167  
[   ]toposens_msgs20-Mar-2020 03:49 117  
[   ]toposens_pointcloud20-Mar-2020 03:49 179  
[   ]toposens_sync20-Mar-2020 03:49 155  
[   ]cob_bringup_sim20-Mar-2020 04:00 123  
[   ]cob_gazebo20-Mar-2020 04:00 108  
[   ]cob_gazebo_objects20-Mar-2020 04:00 132  
[   ]cob_gazebo_tools20-Mar-2020 04:00 126  
[   ]cob_gazebo_worlds20-Mar-2020 04:00 129  
[   ]cob_simulation20-Mar-2020 04:00 120  
[   ]ifm3d21-Mar-2020 03:16 91  
[   ]cob_actions21-Mar-2020 03:17 111  
[   ]cob_common21-Mar-2020 03:17 108  
[   ]cob_description21-Mar-2020 03:17 123  
[   ]cob_msgs21-Mar-2020 03:17 100  
[   ]cob_srvs21-Mar-2020 03:17 100  
[   ]raw_description21-Mar-2020 03:17 123  
[   ]cob_calibration_data21-Mar-2020 03:28 138  
[   ]cob_base_controller_utils22-Mar-2020 03:48 153  
[   ]cob_base_velocity_smoother22-Mar-2020 03:48 156  
[   ]cob_cartesian_controller22-Mar-2020 03:48 150  
[   ]cob_collision_velocity_filter22-Mar-2020 03:48 165  
[   ]cob_control22-Mar-2020 03:48 111  
[   ]cob_control_mode_adapter22-Mar-2020 03:48 150  
[   ]cob_control_msgs22-Mar-2020 03:48 126  
[   ]cob_footprint_observer22-Mar-2020 03:48 144  
[   ]cob_frame_tracker22-Mar-2020 03:48 129  
[   ]cob_hardware_emulation22-Mar-2020 03:48 144  
[   ]cob_mecanum_controller22-Mar-2020 03:48 144  
[   ]cob_model_identifier22-Mar-2020 03:48 138  
[   ]cob_obstacle_distance22-Mar-2020 03:48 141  
[   ]cob_omni_drive_controller22-Mar-2020 03:48 153  
[   ]cob_trajectory_controller22-Mar-2020 03:48 153  
[   ]cob_tricycle_controller22-Mar-2020 03:48 147  
[   ]cob_twist_controller22-Mar-2020 03:48 138  
[   ]freenect_camera23-Mar-2020 04:42 123  
[   ]freenect_launch23-Mar-2020 04:42 123  
[   ]freenect_stack23-Mar-2020 04:42 120  
[   ]omron_os32c_driver25-Mar-2020 03:28 132  
[   ]cob_hand26-Mar-2020 03:16 100  
[   ]cob_hand_bridge26-Mar-2020 03:16 123  
[   ]remote_rosbag_record27-Mar-2020 03:49 138  
[   ]cloudwatch_metrics_collector28-Mar-2020 03:12 162  
[   ]ping360_sonar28-Mar-2020 03:23 117  
[   ]health_metric_collector28-Mar-2020 04:00 147  
[   ]sparse_bundle_adjustment01-Apr-2020 03:18 150  
[   ]cv_bridge01-Apr-2020 03:20 163  
[   ]image_geometry01-Apr-2020 03:20 178  
[   ]opencv_tests01-Apr-2020 03:20 114  
[   ]vision_opencv01-Apr-2020 03:20 117  
[   ]easy_markers02-Apr-2020 03:13 114  
[   ]joy_listener02-Apr-2020 03:13 114  
[   ]kalman_filter02-Apr-2020 03:13 117  
[   ]rosbaglive02-Apr-2020 03:13 108  
[   ]wu_ros_tools02-Apr-2020 03:13 114  
[   ]cloudwatch_logs_common02-Apr-2020 03:28 144  
[   ]cloudwatch_metrics_common02-Apr-2020 03:28 153  
[   ]dataflow_lite02-Apr-2020 03:28 117  
[   ]file_management02-Apr-2020 03:28 123  
[   ]swri_console02-Apr-2020 03:31 114  
[   ]co_scan02-Apr-2020 03:42 97  
[   ]srbot_description02-Apr-2020 03:42 129  
[   ]virtual_scan02-Apr-2020 03:42 114  
[   ]pyquaternion03-Apr-2020 03:10 114  
[   ]random_numbers03-Apr-2020 03:11 120  
[   ]jsk_planning03-Apr-2020 03:23 114  
[   ]pddl_msgs03-Apr-2020 03:23 105  
[   ]pddl_planner03-Apr-2020 03:23 114  
[   ]pddl_planner_viewer03-Apr-2020 03:23 135  
[   ]task_compiler03-Apr-2020 03:23 117  
[   ]pr2_gripper_sensor03-Apr-2020 03:44 132  
[   ]pr2_gripper_sensor_action03-Apr-2020 03:44 153  
[   ]pr2_gripper_sensor_controller03-Apr-2020 03:44 165  
[   ]pr2_gripper_sensor_msgs03-Apr-2020 03:44 147  
[   ]sbg_driver03-Apr-2020 03:54 108  
[   ]kdl_parser03-Apr-2020 04:02 108  
[   ]kdl_parser_py03-Apr-2020 04:02 117  
[   ]robot_state_publisher05-Apr-2020 03:35 141  
[   ]actionlib_tutorials05-Apr-2020 03:57 135  
[   ]common_tutorials05-Apr-2020 03:57 126  
[   ]nodelet_tutorial_math05-Apr-2020 03:57 141  
[   ]pluginlib_tutorials05-Apr-2020 03:57 135  
[   ]turtle_actionlib05-Apr-2020 03:57 126  
[   ]camera_calibration_parsers06-Apr-2020 03:31 156  
[   ]camera_info_manager06-Apr-2020 03:31 135  
[   ]image_common06-Apr-2020 03:31 114  
[   ]image_transport06-Apr-2020 03:31 123  
[   ]polled_camera06-Apr-2020 03:31 117  
[   ]rcdiscover07-Apr-2020 03:53 108  
[   ]rc_dynamics_api07-Apr-2020 03:56 123  
[   ]interactive_markers07-Apr-2020 04:06 135  
[   ]urdf_geometry_parser08-Apr-2020 03:17 138  
[   ]robosense_description09-Apr-2020 03:23 141  
[   ]robosense_gazebo_plugins09-Apr-2020 03:23 150  
[   ]robosense_simulator09-Apr-2020 03:23 135  
[   ]rqt_image_view09-Apr-2020 03:30 120  
[   ]ypspur_ros09-Apr-2020 03:30 108  
[   ]volksbot_driver09-Apr-2020 04:04 123  
[   ]autoware_can_msgs12-Apr-2020 03:54 129  
[   ]autoware_config_msgs12-Apr-2020 03:54 138  
[   ]autoware_external_msgs12-Apr-2020 03:54 144  
[   ]autoware_lanelet2_msgs12-Apr-2020 03:54 144  
[   ]autoware_map_msgs12-Apr-2020 03:54 129  
[   ]autoware_msgs12-Apr-2020 03:54 117  
[   ]autoware_system_msgs12-Apr-2020 03:54 138  
[   ]tablet_socket_msgs12-Apr-2020 03:54 132  
[   ]vector_map_msgs12-Apr-2020 03:54 123  
[   ]jsk_roseus14-Apr-2020 03:19 108  
[   ]roseus14-Apr-2020 03:19 94  
[   ]roseus_mongo14-Apr-2020 03:19 114  
[   ]roseus_smach14-Apr-2020 03:19 114  
[   ]orb_slam2_ros14-Apr-2020 03:21 117  
[   ]jason_hw_bridge14-Apr-2020 03:41 123  
[   ]jason_msgs14-Apr-2020 03:41 108  
[   ]ethercat_trigger_controllers15-Apr-2020 03:16 162  
[   ]joint_trajectory_action15-Apr-2020 03:16 147  
[   ]pr2_calibration_controllers15-Apr-2020 03:16 159  
[   ]pr2_controllers15-Apr-2020 03:16 123  
[   ]pr2_controllers_msgs15-Apr-2020 03:16 138  
[   ]pr2_gripper_action15-Apr-2020 03:16 132  
[   ]pr2_head_action15-Apr-2020 03:16 123  
[   ]pr2_mechanism_controllers15-Apr-2020 03:16 153  
[   ]robot_mechanism_controllers15-Apr-2020 03:16 159  
[   ]single_joint_position_action15-Apr-2020 03:16 162  
[   ]octomap_mapping15-Apr-2020 03:16 123  
[   ]octomap_server15-Apr-2020 03:16 120  
[   ]openrtm_aist17-Apr-2020 03:11 114  
[   ]opencv_apps17-Apr-2020 03:40 111  
[   ]navigation_layers17-Apr-2020 03:51 129  
[   ]range_sensor_layer17-Apr-2020 03:51 132  
[   ]social_navigation_layers17-Apr-2020 03:51 150  
[   ]imu_monitor18-Apr-2020 03:27 111  
[   ]pr2_bringup18-Apr-2020 03:27 111  
[   ]pr2_camera_synchronizer18-Apr-2020 03:27 147  
[   ]pr2_computer_monitor18-Apr-2020 03:27 138  
[   ]pr2_controller_configuration18-Apr-2020 03:27 162  
[   ]pr2_ethercat18-Apr-2020 03:27 114  
[   ]pr2_robot18-Apr-2020 03:27 105  
[   ]pr2_run_stop_auto_restart18-Apr-2020 03:27 153  
[   ]rc_genicam_api18-Apr-2020 03:41 120  
[   ]control_msgs18-Apr-2020 03:59 114  
[   ]realtime_tools19-Apr-2020 03:41 120  
[   ]rosserial19-Apr-2020 04:02 105  
[   ]rosserial_arduino19-Apr-2020 04:02 129  
[   ]rosserial_client19-Apr-2020 04:02 126  
[   ]rosserial_embeddedlinux19-Apr-2020 04:02 147  
[   ]rosserial_mbed19-Apr-2020 04:02 120  
[   ]rosserial_msgs19-Apr-2020 04:02 120  
[   ]rosserial_python19-Apr-2020 04:02 126  
[   ]rosserial_server19-Apr-2020 04:02 126  
[   ]rosserial_test19-Apr-2020 04:02 120  
[   ]rosserial_tivac19-Apr-2020 04:02 123  
[   ]rosserial_vex_cortex19-Apr-2020 04:02 138  
[   ]rosserial_vex_v519-Apr-2020 04:02 126  
[   ]rosserial_windows19-Apr-2020 04:02 129  
[   ]rosserial_xbee19-Apr-2020 04:02 120  
[   ]moveit_python25-Apr-2020 03:08 117  
[   ]convex_decomposition25-Apr-2020 03:12 138  
[   ]laser_proc25-Apr-2020 03:32 108  
[   ]timed_roslaunch26-Apr-2020 03:17 123  
[   ]warehouse_ros26-Apr-2020 03:58 117  
[   ]abb_driver26-Apr-2020 04:00 108  
[   ]ivcon28-Apr-2020 03:42 91  
[   ]mk30-Apr-2020 06:30 82  
[   ]ros30-Apr-2020 06:30 85  
[   ]rosbash30-Apr-2020 06:30 97  
[   ]rosboost_cfg30-Apr-2020 06:30 114  
[   ]rosbuild30-Apr-2020 06:30 100  
[   ]rosclean30-Apr-2020 06:30 100  
[   ]roscreate30-Apr-2020 06:30 105  
[   ]roslang30-Apr-2020 06:30 97  
[   ]roslib30-Apr-2020 06:30 154  
[   ]desktop01-May-2020 03:38 97  
[   ]desktop_full01-May-2020 03:38 114  
[   ]perception01-May-2020 03:38 108  
[   ]robot01-May-2020 03:38 91  
[   ]ros_base01-May-2020 03:38 100  
[   ]ros_core01-May-2020 03:38 100  
[   ]simulators01-May-2020 03:38 108  
[   ]viz01-May-2020 03:38 85  
[   ]video_stream_opencv01-May-2020 03:51 135  
[   ]ds4_driver01-May-2020 03:59 108  
[   ]mrpt_ekf_slam_2d02-May-2020 03:10 126  
[   ]mrpt_ekf_slam_3d02-May-2020 03:10 126  
[   ]mrpt_graphslam_2d02-May-2020 03:10 129  
[   ]mrpt_icp_slam_2d02-May-2020 03:10 126  
[   ]mrpt_rbpf_slam02-May-2020 03:10 120  
[   ]mrpt_slam02-May-2020 03:10 105  
[   ]moveit_experimental02-May-2020 03:52 135  
[   ]uos_common_urdf03-May-2020 03:09 123  
[   ]uos_diffdrive_teleop03-May-2020 03:09 138  
[   ]uos_freespace03-May-2020 03:09 117  
[   ]uos_gazebo_worlds03-May-2020 03:09 129  
[   ]uos_maps03-May-2020 03:09 100  
[   ]uos_tools03-May-2020 03:09 105  
[   ]agni_tf_tools03-May-2020 03:11 117  
[   ]hector_components_description03-May-2020 03:48 165  
[   ]hector_models03-May-2020 03:48 117  
[   ]hector_sensors_description03-May-2020 03:48 156  
[   ]hector_xacro_tools03-May-2020 03:48 132  
[   ]json_msgs03-May-2020 03:58 105  
[   ]json_transport03-May-2020 03:58 120  
[   ]eus_assimp03-May-2020 04:02 108  
[   ]eusurdf03-May-2020 04:02 97  
[   ]jsk_model_tools03-May-2020 04:02 123  
[   ]usv_gazebo_plugins05-May-2020 03:07 132  
[   ]usv_msgs05-May-2020 03:07 100  
[   ]vrx_gazebo05-May-2020 03:07 108  
[   ]wamv_description05-May-2020 03:07 126  
[   ]wamv_gazebo05-May-2020 03:07 111  
[   ]wave_gazebo05-May-2020 03:07 111  
[   ]wave_gazebo_plugins05-May-2020 03:07 135  
[   ]mbf_recovery_behaviors05-May-2020 03:33 144  
[   ]moveback_recovery05-May-2020 03:33 129  
[   ]jsk_common_msgs05-May-2020 03:34 123  
[   ]jsk_footstep_msgs05-May-2020 03:34 129  
[   ]jsk_gui_msgs05-May-2020 03:34 114  
[   ]jsk_hark_msgs05-May-2020 03:34 117  
[   ]posedetection_msgs05-May-2020 03:34 132  
[   ]speech_recognition_msgs05-May-2020 03:34 147  
[   ]robot_pose_ekf07-May-2020 03:23 120  
[   ]grpc08-May-2020 03:21 88  
[   ]moveit_pr208-May-2020 03:37 108  
[   ]pr2_moveit_config08-May-2020 03:37 129  
[   ]pr2_moveit_plugins08-May-2020 03:37 132  
[   ]pr2_moveit_tests08-May-2020 03:37 126  
[   ]image_exposure_msgs08-May-2020 04:02 135  
[   ]pointgrey_camera_description08-May-2020 04:02 162  
[   ]pointgrey_camera_driver08-May-2020 04:02 147  
[   ]statistics_msgs08-May-2020 04:02 123  
[   ]wfov_camera_msgs08-May-2020 04:02 126  
[   ]combined_robot_hw10-May-2020 03:15 129  
[   ]combined_robot_hw_tests10-May-2020 03:15 147  
[   ]controller_interface10-May-2020 03:15 166  
[   ]controller_manager10-May-2020 03:15 160  
[   ]controller_manager_tests10-May-2020 03:15 150  
[   ]hardware_interface10-May-2020 03:15 160  
[   ]joint_limits_interface10-May-2020 03:15 172  
[   ]ros_control10-May-2020 03:15 111  
[   ]rqt_controller_manager10-May-2020 03:15 144  
[   ]transmission_interface10-May-2020 03:15 172  
[   ]multimaster_fkie10-May-2020 03:55 126  
[   ]multimaster_msgs_fkie10-May-2020 03:55 141  
[   ]four_wheel_steering_msgs15-May-2020 03:12 150  
[   ]geometry215-May-2020 03:14 105  
[   ]test_tf215-May-2020 03:14 100  
[   ]tf215-May-2020 03:14 85  
[   ]tf2_bullet15-May-2020 03:14 108  
[   ]tf2_eigen15-May-2020 03:14 105  
[   ]tf2_geometry_msgs15-May-2020 03:14 187  
[   ]tf2_kdl15-May-2020 03:14 157  
[   ]tf2_msgs15-May-2020 03:14 100  
[   ]tf2_py15-May-2020 03:14 94  
[   ]tf2_ros15-May-2020 03:14 157  
[   ]tf2_sensor_msgs15-May-2020 03:14 123  
[   ]tf2_tools15-May-2020 03:14 105  
[   ]rqt_robot_dashboard15-May-2020 03:17 135  
[   ]omnibase_simulator15-May-2020 03:17 132  
[   ]ackermann_steering_controller15-May-2020 03:20 165  
[   ]diff_drive_controller15-May-2020 03:20 141  
[   ]effort_controllers15-May-2020 03:20 132  
[   ]force_torque_sensor_controller15-May-2020 03:20 168  
[   ]forward_command_controller15-May-2020 03:20 156  
[   ]four_wheel_steering_controller15-May-2020 03:20 168  
[   ]gripper_action_controller15-May-2020 03:20 153  
[   ]imu_sensor_controller15-May-2020 03:20 141  
[   ]joint_state_controller15-May-2020 03:20 172  
[   ]joint_trajectory_controller15-May-2020 03:20 187  
[   ]position_controllers15-May-2020 03:20 138  
[   ]ros_controllers15-May-2020 03:20 123  
[   ]velocity_controllers15-May-2020 03:20 138  
[   ]plotjuggler_msgs15-May-2020 03:20 126  
[   ]hironx_calibration15-May-2020 03:22 132  
[   ]hironx_moveit_config15-May-2020 03:22 138  
[   ]hironx_ros_bridge15-May-2020 03:22 129  
[   ]rtmros_hironx15-May-2020 03:22 117  
[   ]jsk_interactive16-May-2020 03:45 123  
[   ]jsk_interactive_marker16-May-2020 03:45 144  
[   ]jsk_interactive_test16-May-2020 03:45 138  
[   ]jsk_rqt_plugins16-May-2020 03:45 123  
[   ]jsk_rviz_plugins16-May-2020 03:45 126  
[   ]jsk_visualization16-May-2020 03:45 129  
[   ]interactive_marker_tutorials16-May-2020 03:45 162  
[   ]visualization_marker_tutorials16-May-2020 03:45 168  
[   ]visualization_tutorials16-May-2020 03:45 147  
[   ]urdf_tutorial16-May-2020 03:49 117  
[   ]ackermann_msgs16-May-2020 03:52 120  
[   ]rospack16-May-2020 03:53 97  
[   ]seed_r7_bringup16-May-2020 03:56 123  
[   ]seed_r7_description16-May-2020 03:56 135  
[   ]seed_r7_moveit_config16-May-2020 03:56 141  
[   ]seed_r7_navigation16-May-2020 03:56 132  
[   ]seed_r7_robot_interface16-May-2020 03:56 147  
[   ]seed_r7_ros_controller16-May-2020 03:56 144  
[   ]seed_r7_ros_pkg16-May-2020 03:56 123  
[   ]seed_r7_samples16-May-2020 03:56 123  
[   ]seed_r7_typef_moveit_config16-May-2020 03:56 159  
[   ]seed_r7_typeg_moveit_config16-May-2020 03:56 159  
[   ]costmap_converter16-May-2020 03:56 129  
[   ]rosbag_editor17-May-2020 03:16 117  
[   ]rqt_common_plugins17-May-2020 03:16 132  
[   ]rqt_virtual_joy17-May-2020 03:54 123  
[   ]rqt_robot_plugins17-May-2020 04:01 129  
[   ]rqt_joint_trajectory_plot18-May-2020 03:30 153  
[   ]jsk_pr2eus18-May-2020 03:48 108  
[   ]pr2eus18-May-2020 03:48 94  
[   ]pr2eus_moveit18-May-2020 03:48 117  
[   ]pr2eus_tutorials18-May-2020 03:48 126  
[   ]hector_compressed_map_transport18-May-2020 04:01 171  
[   ]hector_geotiff18-May-2020 04:01 120  
[   ]hector_geotiff_plugins18-May-2020 04:01 144  
[   ]hector_imu_attitude_to_tf18-May-2020 04:01 153  
[   ]hector_imu_tools18-May-2020 04:01 126  
[   ]hector_map_server18-May-2020 04:01 129  
[   ]hector_map_tools18-May-2020 04:01 126  
[   ]hector_mapping18-May-2020 04:01 120  
[   ]hector_marker_drawing18-May-2020 04:01 141  
[   ]hector_nav_msgs18-May-2020 04:01 123  
[   ]hector_slam18-May-2020 04:01 111  
[   ]hector_slam_launch18-May-2020 04:01 132  
[   ]hector_trajectory_server18-May-2020 04:01 150  
[   ]crazyflie20-May-2020 03:51 105  
[   ]crazyflie_controller20-May-2020 03:51 138  
[   ]crazyflie_cpp20-May-2020 03:51 117  
[   ]crazyflie_demo20-May-2020 03:51 120  
[   ]crazyflie_description20-May-2020 03:51 141  
[   ]crazyflie_driver20-May-2020 03:51 126  
[   ]crazyflie_tools20-May-2020 03:51 123  
[   ]geodesy21-May-2020 03:10 157  
[   ]geographic_info21-May-2020 03:10 123  
[   ]geographic_msgs21-May-2020 03:10 123  
[   ]gazebo_dev21-May-2020 03:47 108  
[   ]gazebo_msgs21-May-2020 03:47 111  
[   ]gazebo_plugins21-May-2020 03:47 120  
[   ]gazebo_ros21-May-2020 03:47 108  
[   ]gazebo_ros_control21-May-2020 03:47 132  
[   ]gazebo_ros_pkgs21-May-2020 03:47 123  
[   ]xaxxon_openlidar22-May-2020 03:13 126  
[   ]turtlebot323-May-2020 03:20 108  
[   ]turtlebot3_bringup23-May-2020 03:20 132  
[   ]turtlebot3_description23-May-2020 03:20 144  
[   ]turtlebot3_example23-May-2020 03:20 132  
[   ]turtlebot3_navigation23-May-2020 03:20 141  
[   ]turtlebot3_slam23-May-2020 03:20 123  
[   ]turtlebot3_teleop23-May-2020 03:20 129  
[   ]rqt_console23-May-2020 03:43 111  
[   ]rqt_logger_level23-May-2020 03:50 126  
[   ]rqt_graph23-May-2020 03:56 105  
[   ]moveit_msgs24-May-2020 03:40 111  
[   ]pybind11_catkin25-May-2020 03:30 123  
[   ]roslisp25-May-2020 03:59 97  
[   ]geometric_shapes26-May-2020 03:13 126  
[   ]gps_common26-May-2020 03:44 108  
[   ]gps_umd26-May-2020 03:44 97  
[   ]gpsd_client26-May-2020 03:44 111  
[   ]mbf_abstract_core27-May-2020 04:03 129  
[   ]mbf_abstract_nav27-May-2020 04:03 126  
[   ]mbf_costmap_core27-May-2020 04:03 126  
[   ]mbf_costmap_nav27-May-2020 04:03 123  
[   ]mbf_msgs27-May-2020 04:03 100  
[   ]mbf_simple_nav27-May-2020 04:03 120  
[   ]mbf_utility27-May-2020 04:03 111  
[   ]move_base_flex27-May-2020 04:03 120  
[   ]urdfdom_py28-May-2020 03:11 108  
[   ]hebi_cpp_api28-May-2020 03:32 114  
[   ]cob_extern28-May-2020 03:57 108  
[   ]libdlib28-May-2020 03:57 97  
[   ]libntcan28-May-2020 03:57 100  
[   ]libpcan28-May-2020 03:57 97  
[   ]libphidgets28-May-2020 03:57 111  
[   ]opengm28-May-2020 03:57 94  
[   ]raspimouse_description28-May-2020 04:01 144  
[   ]ros_type_introspection01-Jun-2020 03:26 144  
[   ]catch_ros01-Jun-2020 03:54 105  
[   ]urdf_sim_tutorial01-Jun-2020 04:08 129  
[   ]rqt_tf_tree02-Jun-2020 03:17 111  
[   ]moveit_opw_kinematics_plugin02-Jun-2020 03:20 162  
[   ]audio_to_spectrogram02-Jun-2020 03:20 138  
[   ]checkerboard_detector02-Jun-2020 03:20 141  
[   ]imagesift02-Jun-2020 03:20 105  
[   ]jsk_pcl_ros02-Jun-2020 03:20 111  
[   ]jsk_pcl_ros_utils02-Jun-2020 03:20 129  
[   ]jsk_perception02-Jun-2020 03:20 120  
[   ]jsk_recognition02-Jun-2020 03:20 123  
[   ]jsk_recognition_msgs02-Jun-2020 03:20 138  
[   ]jsk_recognition_utils02-Jun-2020 03:20 141  
[   ]resized_image_transport02-Jun-2020 03:20 147  
[   ]rqt_shell02-Jun-2020 03:24 105  
[   ]rqt_runtime_monitor02-Jun-2020 03:42 135  
[   ]rqt_rviz02-Jun-2020 03:48 100  
[   ]rqt_web02-Jun-2020 03:48 97  
[   ]odom_frame_publisher02-Jun-2020 03:56 138  
[   ]leap_motion02-Jun-2020 03:58 111  
[   ]rqt_service_caller03-Jun-2020 03:04 132  
[   ]rqt_dep03-Jun-2020 03:09 97  
[   ]rqt_pose_view03-Jun-2020 03:09 117  
[   ]rqt_robot_monitor03-Jun-2020 03:10 129  
[   ]rqt_py_console03-Jun-2020 03:14 120  
[   ]rqt_topic03-Jun-2020 03:18 105  
[   ]csm03-Jun-2020 03:31 85  
[   ]rqt_top03-Jun-2020 03:34 97  
[   ]cv_camera03-Jun-2020 03:36 105  
[   ]rqt_publisher03-Jun-2020 03:37 117  
[   ]rosapi03-Jun-2020 03:46 94  
[   ]rosbridge_library03-Jun-2020 03:46 129  
[   ]rosbridge_msgs03-Jun-2020 03:46 120  
[   ]rosbridge_server03-Jun-2020 03:46 126  
[   ]rosbridge_suite03-Jun-2020 03:46 123  
[   ]rqt_bag03-Jun-2020 03:46 97  
[   ]rqt_bag_plugins03-Jun-2020 03:46 123  
[   ]rqt_msg03-Jun-2020 03:51 97  
[   ]openni2_camera03-Jun-2020 03:52 120  
[   ]rqt_srv03-Jun-2020 03:55 97  
[   ]rqt_robot_steering03-Jun-2020 04:02 132  
[   ]spatio_temporal_voxel_layer03-Jun-2020 04:05 159  
[   ]rqt_moveit04-Jun-2020 03:19 108  
[   ]imu_pipeline04-Jun-2020 03:53 114  
[   ]imu_processors04-Jun-2020 03:53 120  
[   ]imu_transformer04-Jun-2020 03:53 123  
[   ]rqt_launch04-Jun-2020 04:12 108  
[   ]control_toolbox05-Jun-2020 03:12 123  
[   ]simple_desktop_launcher05-Jun-2020 03:15 147  
[   ]twist_mux05-Jun-2020 03:15 105  
[   ]ublox05-Jun-2020 03:38 91  
[   ]ublox_gps05-Jun-2020 03:38 105  
[   ]ublox_msgs05-Jun-2020 03:38 108  
[   ]ublox_serialization05-Jun-2020 03:38 135  
[   ]fanuc_post_processor05-Jun-2020 03:50 138  
[   ]hrpsys05-Jun-2020 03:52 94  
[   ]control_box_rst06-Jun-2020 03:21 123  
[   ]robot_calibration06-Jun-2020 03:29 129  
[   ]robot_calibration_msgs06-Jun-2020 03:29 144  
[   ]usb_cam06-Jun-2020 03:51 97  
[   ]nmea_to_geopose07-Jun-2020 03:08 123  
[   ]joy_teleop07-Jun-2020 03:17 108  
[   ]key_teleop07-Jun-2020 03:17 108  
[   ]mouse_teleop07-Jun-2020 03:17 114  
[   ]teleop_tools07-Jun-2020 03:17 114  
[   ]teleop_tools_msgs07-Jun-2020 03:17 129  
[   ]industrial_robot_angle_conversions07-Jun-2020 03:38 180  
[   ]ros_robodk_post_processors07-Jun-2020 03:50 156  
[   ]husky_cartographer_navigation09-Jun-2020 03:15 165  
[   ]urg_c09-Jun-2020 03:50 91  
[   ]octomap_pa10-Jun-2020 03:20 108  
[   ]pcdfilter_pa10-Jun-2020 03:20 114  
[   ]rviz_visual_tools10-Jun-2020 03:54 129  
[   ]haf_grasping11-Jun-2020 03:09 114  
[   ]parameter_pa11-Jun-2020 03:19 114  
[   ]avt_vimba_camera11-Jun-2020 03:21 126  
[   ]staubli_val3_driver11-Jun-2020 03:52 135  
[   ]aruco_detect12-Jun-2020 03:52 114  
[   ]fiducial_msgs12-Jun-2020 03:52 117  
[   ]fiducial_slam12-Jun-2020 03:52 117  
[   ]fiducials12-Jun-2020 03:52 105  
[   ]rosparam_shortcuts12-Jun-2020 03:59 132  
[   ]marti_can_msgs13-Jun-2020 03:09 120  
[   ]marti_common_msgs13-Jun-2020 03:09 129  
[   ]marti_dbw_msgs13-Jun-2020 03:09 120  
[   ]marti_nav_msgs13-Jun-2020 03:09 120  
[   ]marti_perception_msgs13-Jun-2020 03:09 141  
[   ]marti_sensor_msgs13-Jun-2020 03:09 129  
[   ]marti_status_msgs13-Jun-2020 03:09 129  
[   ]marti_visualization_msgs13-Jun-2020 03:09 150  
[   ]moveit_sim_controller13-Jun-2020 03:34 141  
[   ]rqt13-Jun-2020 03:49 85  
[   ]rqt_gui13-Jun-2020 03:49 97  
[   ]rqt_gui_cpp13-Jun-2020 03:49 111  
[   ]rqt_gui_py13-Jun-2020 03:49 108  
[   ]rqt_py_common13-Jun-2020 03:49 117  
[   ]python_qt_binding14-Jun-2020 03:43 129  
[   ]rqt_bag_exporter14-Jun-2020 03:47 126  
[   ]simple_node14-Jun-2020 03:48 111  
[   ]simple_rviz_plugin14-Jun-2020 03:48 132  
[   ]rr_openrover_navigation15-Jun-2020 03:11 147  
[   ]leo_description15-Jun-2020 03:22 123  
[   ]graph_rviz_plugin15-Jun-2020 03:24 129  
[   ]graph_msgs15-Jun-2020 03:28 108  
[   ]rqt_reconfigure15-Jun-2020 03:30 123  
[   ]flexbe_behavior_engine15-Jun-2020 03:33 144  
[   ]flexbe_core15-Jun-2020 03:33 111  
[   ]flexbe_input15-Jun-2020 03:33 114  
[   ]flexbe_mirror15-Jun-2020 03:33 117  
[   ]flexbe_msgs15-Jun-2020 03:33 111  
[   ]flexbe_onboard15-Jun-2020 03:33 120  
[   ]flexbe_states15-Jun-2020 03:33 117  
[   ]flexbe_testing15-Jun-2020 03:33 120  
[   ]flexbe_widget15-Jun-2020 03:33 117  
[   ]ifopt16-Jun-2020 03:15 91  
[   ]urg_node17-Jun-2020 03:53 100  
[   ]trac_ik17-Jun-2020 03:53 97  
[   ]trac_ik_examples17-Jun-2020 03:53 126  
[   ]trac_ik_kinematics_plugin17-Jun-2020 03:53 153  
[   ]trac_ik_lib17-Jun-2020 03:53 111  
[   ]trac_ik_python17-Jun-2020 03:53 120  
[   ]sick_tim17-Jun-2020 03:58 100  
[   ]imu_complementary_filter18-Jun-2020 03:21 150  
[   ]imu_filter_madgwick18-Jun-2020 03:21 135  
[   ]imu_tools18-Jun-2020 03:21 105  
[   ]uuv_assistants18-Jun-2020 03:25 120  
[   ]uuv_auv_control_allocator18-Jun-2020 03:25 153  
[   ]uuv_control_cascaded_pid18-Jun-2020 03:25 150  
[   ]uuv_control_msgs18-Jun-2020 03:25 126  
[   ]uuv_control_utils18-Jun-2020 03:25 129  
[   ]uuv_descriptions18-Jun-2020 03:25 126  
[   ]uuv_gazebo18-Jun-2020 03:25 108  
[   ]uuv_gazebo_plugins18-Jun-2020 03:25 132  
[   ]uuv_gazebo_ros_plugins18-Jun-2020 03:25 144  
[   ]uuv_gazebo_ros_plugins_msgs18-Jun-2020 03:25 159  
[   ]uuv_gazebo_worlds18-Jun-2020 03:25 129  
[   ]uuv_sensor_ros_plugins18-Jun-2020 03:25 144  
[   ]uuv_sensor_ros_plugins_msgs18-Jun-2020 03:25 159  
[   ]uuv_simulator18-Jun-2020 03:25 117  
[   ]uuv_teleop18-Jun-2020 03:25 108  
[   ]uuv_thruster_manager18-Jun-2020 03:25 138  
[   ]uuv_trajectory_control18-Jun-2020 03:25 144  
[   ]uuv_tutorial_disturbances18-Jun-2020 03:25 153  
[   ]uuv_tutorial_dp_controller18-Jun-2020 03:25 156  
[   ]uuv_tutorial_seabed_world18-Jun-2020 03:25 153  
[   ]uuv_tutorials18-Jun-2020 03:25 117  
[   ]uuv_world_plugins18-Jun-2020 03:25 129  
[   ]uuv_world_ros_plugins18-Jun-2020 03:25 141  
[   ]uuv_world_ros_plugins_msgs18-Jun-2020 03:25 156  
[   ]basler_tof18-Jun-2020 03:37 108  
[   ]towr18-Jun-2020 03:44 88  
[   ]towr_ros18-Jun-2020 03:44 100  
[   ]rosbag_fancy18-Jun-2020 04:02 114  
[   ]sick_safetyscanners18-Jun-2020 04:05 135  
[   ]asr_halcon_bridge19-Jun-2020 03:17 129  
[   ]turtlebot3_msgs19-Jun-2020 03:28 123  
[   ]nextage_calibration20-Jun-2020 03:29 135  
[   ]nextage_description20-Jun-2020 03:29 135  
[   ]nextage_gazebo20-Jun-2020 03:29 120  
[   ]nextage_ik_plugin20-Jun-2020 03:29 129  
[   ]nextage_moveit_config20-Jun-2020 03:29 141  
[   ]nextage_ros_bridge20-Jun-2020 03:29 132  
[   ]rtmros_nextage20-Jun-2020 03:29 120  
[   ]sick_ldmrs_description20-Jun-2020 03:59 144  
[   ]sick_ldmrs_driver20-Jun-2020 03:59 129  
[   ]sick_ldmrs_laser20-Jun-2020 03:59 126  
[   ]sick_ldmrs_msgs20-Jun-2020 03:59 123  
[   ]sick_ldmrs_tools20-Jun-2020 03:59 126  
[   ]assisted_teleop21-Jun-2020 03:55 123  
[   ]goal_passer21-Jun-2020 03:55 111  
[   ]navigation_experimental21-Jun-2020 03:55 147  
[   ]pose_base_controller21-Jun-2020 03:55 138  
[   ]pose_follower21-Jun-2020 03:55 117  
[   ]sbpl_lattice_planner21-Jun-2020 03:55 138  
[   ]sbpl_recovery21-Jun-2020 03:55 117  
[   ]twist_recovery21-Jun-2020 03:55 120  
[   ]leo_viz21-Jun-2020 03:59 97  
[   ]rosbag_snapshot25-Jun-2020 03:13 123  
[   ]rosbag_snapshot_msgs25-Jun-2020 03:13 138  
[   ]libphidget2125-Jun-2020 03:18 114  
[   ]phidgets_api25-Jun-2020 03:18 114  
[   ]phidgets_drivers25-Jun-2020 03:18 126  
[   ]phidgets_high_speed_encoder25-Jun-2020 03:18 159  
[   ]phidgets_ik25-Jun-2020 03:18 111  
[   ]phidgets_imu25-Jun-2020 03:18 114  
[   ]phidgets_msgs25-Jun-2020 03:18 117  
[   ]ur_msgs25-Jun-2020 03:28 97  
[   ]moveit_jog_arm26-Jun-2020 03:56 120  
[   ]urg_stamped27-Jun-2020 03:13 111  
[   ]teleop_twist_keyboard27-Jun-2020 03:45 141  
[   ]zivid_camera27-Jun-2020 04:04 114  
[   ]zivid_samples27-Jun-2020 04:04 117  
[   ]srdfdom01-Jul-2020 03:14 97  
[   ]orocos_kdl01-Jul-2020 03:17 108  
[   ]mir_actions01-Jul-2020 03:18 111  
[   ]mir_description01-Jul-2020 03:18 123  
[   ]mir_driver01-Jul-2020 03:18 108  
[   ]mir_dwb_critics01-Jul-2020 03:18 123  
[   ]mir_gazebo01-Jul-2020 03:18 108  
[   ]mir_msgs01-Jul-2020 03:18 100  
[   ]mir_navigation01-Jul-2020 03:18 120  
[   ]mir_robot01-Jul-2020 03:18 105  
[   ]sdc21x001-Jul-2020 03:18 97  
[   ]hdf5_map_io02-Jul-2020 03:12 111  
[   ]label_manager02-Jul-2020 03:12 117  
[   ]mesh_msgs02-Jul-2020 03:12 105  
[   ]mesh_msgs_hdf502-Jul-2020 03:12 120  
[   ]mesh_msgs_transform02-Jul-2020 03:12 135  
[   ]mesh_tools02-Jul-2020 03:12 108  
[   ]rviz_map_plugin02-Jul-2020 03:12 123  
[   ]rviz_mesh_plugin02-Jul-2020 03:12 126  
[   ]hrpsys_tools02-Jul-2020 03:57 114  
[   ]openrtm_tools02-Jul-2020 03:57 117  
[   ]rtmbuild02-Jul-2020 03:57 100  
[   ]rtmros_common02-Jul-2020 03:57 117  
[   ]datmo02-Jul-2020 03:58 91  
[   ]rc_common_msgs03-Jul-2020 03:20 120  
[   ]exotica03-Jul-2020 03:50 127  
[   ]exotica_aico_solver03-Jul-2020 03:50 135  
[   ]exotica_cartpole_dynamics_solver03-Jul-2020 03:50 174  
[   ]exotica_collision_scene_fcl03-Jul-2020 03:50 159  
[   ]exotica_collision_scene_fcl_latest03-Jul-2020 03:50 180  
[   ]exotica_core03-Jul-2020 03:50 114  
[   ]exotica_core_task_maps03-Jul-2020 03:50 144  
[   ]exotica_ddp_solver03-Jul-2020 03:50 132  
[   ]exotica_double_integrator_dynamics_solver03-Jul-2020 03:50 201  
[   ]exotica_dynamics_solvers03-Jul-2020 03:50 150  
[   ]exotica_examples03-Jul-2020 03:50 126  
[   ]exotica_ik_solver03-Jul-2020 03:50 129  
[   ]exotica_ilqg_solver03-Jul-2020 03:50 135  
[   ]exotica_ilqr_solver03-Jul-2020 03:50 135  
[   ]exotica_levenberg_marquardt_solver03-Jul-2020 03:50 180  
[   ]exotica_ompl_control_solver03-Jul-2020 03:50 159  
[   ]exotica_ompl_solver03-Jul-2020 03:50 135  
[   ]exotica_pendulum_dynamics_solver03-Jul-2020 03:50 174  
[   ]exotica_pinocchio_dynamics_solver03-Jul-2020 03:50 177  
[   ]exotica_python03-Jul-2020 03:50 120  
[   ]exotica_quadrotor_dynamics_solver03-Jul-2020 03:50 177  
[   ]exotica_scipy_solver03-Jul-2020 03:50 138  
[   ]exotica_time_indexed_rrt_connect_solver03-Jul-2020 03:50 195  
[   ]moveit_resources03-Jul-2020 03:54 126  
[   ]multi_object_tracking_lidar03-Jul-2020 03:57 159  
[   ]mobile_robot_simulator03-Jul-2020 04:06 144  
[   ]mongodb_log04-Jul-2020 03:46 111  
[   ]mongodb_store_msgs04-Jul-2020 03:46 132  
[   ]octomap_msgs04-Jul-2020 03:46 114  
[   ]cloudwatch_logger04-Jul-2020 03:48 129  
[   ]costmap_queue04-Jul-2020 03:51 117  
[   ]dlux_global_planner04-Jul-2020 03:51 135  
[   ]dlux_plugins04-Jul-2020 03:51 114  
[   ]dwb_critics04-Jul-2020 03:51 111  
[   ]dwb_local_planner04-Jul-2020 03:51 129  
[   ]dwb_msgs04-Jul-2020 03:51 100  
[   ]dwb_plugins04-Jul-2020 03:51 111  
[   ]global_planner_tests04-Jul-2020 03:51 138  
[   ]locomotor04-Jul-2020 03:51 105  
[   ]locomotor_msgs04-Jul-2020 03:51 120  
[   ]locomove_base04-Jul-2020 03:51 117  
[   ]nav_2d_msgs04-Jul-2020 03:51 111  
[   ]nav_2d_utils04-Jul-2020 03:51 114  
[   ]nav_core204-Jul-2020 03:51 105  
[   ]nav_core_adapter04-Jul-2020 03:51 126  
[   ]nav_grid04-Jul-2020 03:51 100  
[   ]nav_grid_iterators04-Jul-2020 03:51 132  
[   ]nav_grid_pub_sub04-Jul-2020 03:51 126  
[   ]robot_navigation04-Jul-2020 03:51 126  
[   ]pr2_controller_interface04-Jul-2020 03:53 150  
[   ]pr2_controller_manager04-Jul-2020 03:53 144  
[   ]pr2_hardware_interface04-Jul-2020 03:53 144  
[   ]pr2_mechanism04-Jul-2020 03:53 117  
[   ]pr2_mechanism_diagnostics04-Jul-2020 03:53 153  
[   ]pr2_mechanism_model04-Jul-2020 03:53 135  
[   ]pid04-Jul-2020 03:59 85  
[   ]fetch_auto_dock_msgs06-Jul-2020 03:55 138  
[   ]fetch_driver_msgs06-Jul-2020 03:55 129  
[   ]xacro07-Jul-2020 03:48 91  
[   ]panda_moveit_config07-Jul-2020 03:56 135  
[   ]dataspeed_can08-Jul-2020 03:16 117  
[   ]dataspeed_can_msg_filters08-Jul-2020 03:16 153  
[   ]dataspeed_can_tools08-Jul-2020 03:16 135  
[   ]dataspeed_can_usb08-Jul-2020 03:16 129  
[   ]dataspeed_ulc08-Jul-2020 03:20 117  
[   ]dataspeed_ulc_can08-Jul-2020 03:20 129  
[   ]dataspeed_ulc_msgs08-Jul-2020 03:20 132  
[   ]robot_controllers09-Jul-2020 03:44 129  
[   ]robot_controllers_interface09-Jul-2020 03:44 159  
[   ]robot_controllers_msgs09-Jul-2020 03:44 144  
[   ]ros_emacs_utils09-Jul-2020 03:59 123  
[   ]rosemacs09-Jul-2020 03:59 100  
[   ]roslisp_repl09-Jul-2020 03:59 114  
[   ]slime_ros09-Jul-2020 03:59 105  
[   ]slime_wrapper09-Jul-2020 03:59 117  
[   ]bond09-Jul-2020 04:04 88  
[   ]bond_core09-Jul-2020 04:04 105  
[   ]bondcpp09-Jul-2020 04:04 97  
[   ]bondpy09-Jul-2020 04:04 94  
[   ]smclib09-Jul-2020 04:04 94  
[   ]test_bond09-Jul-2020 04:04 105  
[   ]nmc_nlp_lite10-Jul-2020 03:31 114  
[   ]rospy_message_converter10-Jul-2020 03:34 147  
[   ]lusb10-Jul-2020 03:35 88  
[   ]auv_msgs10-Jul-2020 03:47 100  
[   ]librealsense210-Jul-2020 03:49 117  
[   ]behaviortree_cpp_v310-Jul-2020 03:59 135  
[   ]lvr211-Jul-2020 03:14 88  
[   ]chomp_motion_planner11-Jul-2020 03:53 138  
[   ]moveit11-Jul-2020 03:53 94  
[   ]moveit_chomp_optimizer_adapter11-Jul-2020 03:53 168  
[   ]moveit_commander11-Jul-2020 03:53 126  
[   ]moveit_controller_manager_example11-Jul-2020 03:53 177  
[   ]moveit_core11-Jul-2020 03:53 111  
[   ]moveit_fake_controller_manager11-Jul-2020 03:53 168  
[   ]moveit_kinematics11-Jul-2020 03:53 129  
[   ]moveit_planners11-Jul-2020 03:53 123  
[   ]moveit_planners_chomp11-Jul-2020 03:53 141  
[   ]moveit_planners_ompl11-Jul-2020 03:53 138  
[   ]moveit_plugins11-Jul-2020 03:53 120  
[   ]moveit_ros11-Jul-2020 03:53 108  
[   ]moveit_ros_benchmarks11-Jul-2020 03:53 141  
[   ]moveit_ros_control_interface11-Jul-2020 03:53 162  
[   ]moveit_ros_manipulation11-Jul-2020 03:53 147  
[   ]moveit_ros_move_group11-Jul-2020 03:53 141  
[   ]moveit_ros_occupancy_map_monitor11-Jul-2020 03:53 174  
[   ]moveit_ros_perception11-Jul-2020 03:53 141  
[   ]moveit_ros_planning11-Jul-2020 03:53 135  
[   ]moveit_ros_planning_interface11-Jul-2020 03:53 165  
[   ]moveit_ros_robot_interaction11-Jul-2020 03:53 162  
[   ]moveit_ros_visualization11-Jul-2020 03:53 150  
[   ]moveit_ros_warehouse11-Jul-2020 03:53 138  
[   ]moveit_runtime11-Jul-2020 03:53 120  
[   ]moveit_servo11-Jul-2020 03:53 114  
[   ]moveit_setup_assistant11-Jul-2020 03:53 144  
[   ]moveit_simple_controller_manager11-Jul-2020 03:53 174  
[   ]pr2_app_manager11-Jul-2020 04:00 123  
[   ]pr2_apps11-Jul-2020 04:00 100  
[   ]pr2_mannequin_mode11-Jul-2020 04:00 132  
[   ]pr2_position_scripts11-Jul-2020 04:00 138  
[   ]pr2_teleop11-Jul-2020 04:00 108  
[   ]pr2_teleop_general11-Jul-2020 04:00 132  
[   ]pr2_tuckarm11-Jul-2020 04:00 111  
[   ]tf2_server12-Jul-2020 03:12 108  
[   ]rosbag_pandas12-Jul-2020 03:28 117  
[   ]sainsmart_relay_usb12-Jul-2020 03:53 135  
[   ]laser_scan_publisher_tutorial12-Jul-2020 04:04 165  
[   ]navigation_stage12-Jul-2020 04:04 126  
[   ]navigation_tutorials12-Jul-2020 04:04 138  
[   ]odometry_publisher_tutorial12-Jul-2020 04:04 159  
[   ]point_cloud_publisher_tutorial12-Jul-2020 04:04 168  
[   ]robot_setup_tf_tutorial12-Jul-2020 04:04 147  
[   ]roomba_stage12-Jul-2020 04:04 114  
[   ]simple_navigation_goals_tutorial12-Jul-2020 04:04 174  
[   ]rtabmap_ros12-Jul-2020 04:07 111  
[   ]usb_cam_controllers14-Jul-2020 03:17 135  
[   ]usb_cam_hardware14-Jul-2020 03:17 126  
[   ]usb_cam_hardware_interface14-Jul-2020 03:17 156  
[   ]rtabmap14-Jul-2020 03:33 97  
[   ]pr2_common15-Jul-2020 03:32 108  
[   ]pr2_dashboard_aggregator15-Jul-2020 03:32 150  
[   ]pr2_description15-Jul-2020 03:32 123  
[   ]pr2_machine15-Jul-2020 03:32 111  
[   ]pr2_msgs15-Jul-2020 03:32 100  
[   ]mqtt_bridge15-Jul-2020 03:35 111  
[   ]hls_lfcd_lds_driver15-Jul-2020 03:41 135  
[   ]laser_geometry15-Jul-2020 03:54 120  
[   ]collada_parser15-Jul-2020 03:55 120  
[   ]collada_urdf15-Jul-2020 03:55 114  
[   ]apriltag_ros16-Jul-2020 03:07 114  
[   ]teb_local_planner16-Jul-2020 03:26 129  
[   ]novatel_gps_driver16-Jul-2020 03:35 132  
[   ]novatel_gps_msgs16-Jul-2020 03:35 126  
[   ]catkin_virtualenv16-Jul-2020 03:38 129  
[   ]test_catkin_virtualenv16-Jul-2020 03:38 144  
[   ]test_catkin_virtualenv_inherited16-Jul-2020 03:38 174  
[   ]test_catkin_virtualenv_py316-Jul-2020 03:38 156  
[   ]test_catkin_virtualenv_py3_isolated16-Jul-2020 03:38 183  
[   ]app_manager16-Jul-2020 03:58 111  
[   ]actionlib_lisp17-Jul-2020 03:41 120  
[   ]cl_tf17-Jul-2020 03:41 91  
[   ]cl_tf217-Jul-2020 03:41 94  
[   ]cl_transforms17-Jul-2020 03:41 117  
[   ]cl_transforms_stamped17-Jul-2020 03:41 141  
[   ]cl_urdf17-Jul-2020 03:41 97  
[   ]cl_utils17-Jul-2020 03:41 100  
[   ]roslisp_common17-Jul-2020 03:41 120  
[   ]roslisp_utilities17-Jul-2020 03:41 129  
[   ]slam_karto17-Jul-2020 03:58 108  
[   ]marti_data_structures18-Jul-2020 03:15 141  
[   ]swri_console_util18-Jul-2020 03:15 129  
[   ]swri_dbw_interface18-Jul-2020 03:15 132  
[   ]swri_geometry_util18-Jul-2020 03:15 132  
[   ]swri_image_util18-Jul-2020 03:15 123  
[   ]swri_math_util18-Jul-2020 03:15 120  
[   ]swri_nodelet18-Jul-2020 03:15 114  
[   ]swri_opencv_util18-Jul-2020 03:15 126  
[   ]swri_prefix_tools18-Jul-2020 03:15 129  
[   ]swri_roscpp18-Jul-2020 03:15 111  
[   ]swri_rospy18-Jul-2020 03:15 108  
[   ]swri_route_util18-Jul-2020 03:15 123  
[   ]swri_serial_util18-Jul-2020 03:15 126  
[   ]swri_string_util18-Jul-2020 03:15 126  
[   ]swri_system_util18-Jul-2020 03:15 126  
[   ]swri_transform_util18-Jul-2020 03:15 163  
[   ]swri_yaml_util18-Jul-2020 03:15 120  
[   ]rqt_multiplot18-Jul-2020 03:26 117  
[   ]velodyne18-Jul-2020 03:33 100  
[   ]velodyne_driver18-Jul-2020 03:33 123  
[   ]velodyne_laserscan18-Jul-2020 03:33 132  
[   ]velodyne_msgs18-Jul-2020 03:33 117  
[   ]velodyne_pointcloud18-Jul-2020 03:33 135  
[   ]dynamixel_sdk18-Jul-2020 03:58 117  
[   ]robot_localization19-Jul-2020 04:02 160  
[   ]aws_common20-Jul-2020 03:25 108  
[   ]jason_ros20-Jul-2020 03:41 105  
[   ]jason_ros_comm20-Jul-2020 03:41 120  
[   ]jason_ros_msgs20-Jul-2020 03:41 120  
[   ]mpc_local_planner21-Jul-2020 03:56 129  
[   ]mpc_local_planner_examples21-Jul-2020 03:56 156  
[   ]mpc_local_planner_msgs21-Jul-2020 03:56 144  
[   ]joy22-Jul-2020 03:07 85  
[   ]joystick_drivers22-Jul-2020 03:07 126  
[   ]ps3joy22-Jul-2020 03:07 94  
[   ]spacenav_node22-Jul-2020 03:07 117  
[   ]wiimote22-Jul-2020 03:07 97  
[   ]sick_scan22-Jul-2020 03:25 105  
[   ]eigenpy23-Jul-2020 03:11 97  
[   ]rosflight23-Jul-2020 03:19 105  
[   ]rosflight_firmware23-Jul-2020 03:19 132  
[   ]rosflight_msgs23-Jul-2020 03:19 120  
[   ]rosflight_pkgs23-Jul-2020 03:19 120  
[   ]rosflight_sim23-Jul-2020 03:19 117  
[   ]rosflight_utils23-Jul-2020 03:19 123  
[   ]openhrp323-Jul-2020 03:25 100  
[   ]warehouse_ros_mongo23-Jul-2020 03:30 135  
[   ]fcl23-Jul-2020 04:00 85  
[   ]rviz24-Jul-2020 03:07 152  
[   ]fetch_bringup24-Jul-2020 03:15 117  
[   ]fetch_drivers24-Jul-2020 03:15 117  
[   ]freight_bringup24-Jul-2020 03:15 123  
[   ]assimp_devel24-Jul-2020 03:39 114  
[   ]bayesian_belief_networks24-Jul-2020 03:39 150  
[   ]collada_urdf_jsk_patch24-Jul-2020 03:39 144  
[   ]dialogflow_task_executive24-Jul-2020 03:39 153  
[   ]downward24-Jul-2020 03:39 100  
[   ]ff24-Jul-2020 03:39 82  
[   ]ffha24-Jul-2020 03:39 88  
[   ]gdrive_ros24-Jul-2020 03:39 108  
[   ]jsk_3rdparty24-Jul-2020 03:39 114  
[   ]julius24-Jul-2020 03:39 94  
[   ]julius_ros24-Jul-2020 03:39 108  
[   ]laser_filters_jsk_patch24-Jul-2020 03:39 147  
[   ]libcmt24-Jul-2020 03:39 94  
[   ]libsiftfast24-Jul-2020 03:39 111  
[   ]lpg_planner24-Jul-2020 03:39 111  
[   ]mini_maxwell24-Jul-2020 03:39 114  
[   ]nlopt24-Jul-2020 03:39 91  
[   ]opt_camera24-Jul-2020 03:39 108  
[   ]pgm_learner24-Jul-2020 03:39 111  
[   ]respeaker_ros24-Jul-2020 03:39 117  
[   ]ros_speech_recognition24-Jul-2020 03:39 144  
[   ]rospatlite24-Jul-2020 03:39 108  
[   ]rosping24-Jul-2020 03:40 97  
[   ]rostwitter24-Jul-2020 03:40 108  
[   ]sesame_ros24-Jul-2020 03:40 108  
[   ]slic24-Jul-2020 03:40 88  
[   ]voice_text24-Jul-2020 03:40 108  
[   ]dynamic-graph25-Jul-2020 03:05 117  
[   ]amcl25-Jul-2020 03:13 88  
[   ]base_local_planner25-Jul-2020 03:13 132  
[   ]carrot_planner25-Jul-2020 03:13 120  
[   ]clear_costmap_recovery25-Jul-2020 03:13 144  
[   ]costmap_2d25-Jul-2020 03:13 108  
[   ]dwa_local_planner25-Jul-2020 03:13 129  
[   ]fake_localization25-Jul-2020 03:13 129  
[   ]global_planner25-Jul-2020 03:13 120  
[   ]map_server25-Jul-2020 03:13 108  
[   ]move_base25-Jul-2020 03:13 105  
[   ]move_slow_and_clear25-Jul-2020 03:13 135  
[   ]nav_core25-Jul-2020 03:13 100  
[   ]navfn25-Jul-2020 03:13 91  
[   ]navigation25-Jul-2020 03:13 108  
[   ]rotate_recovery25-Jul-2020 03:13 123  
[   ]voxel_grid25-Jul-2020 03:13 108  
[   ]rosmon25-Jul-2020 03:16 94  
[   ]rosmon_core25-Jul-2020 03:16 111  
[   ]rosmon_msgs25-Jul-2020 03:16 111  
[   ]rqt_rosmon25-Jul-2020 03:16 108  
[   ]generic_control_toolbox25-Jul-2020 03:56 147  
[   ]pilz_extensions26-Jul-2020 03:26 123  
[   ]pilz_industrial_motion26-Jul-2020 03:26 144  
[   ]pilz_industrial_motion_testutils26-Jul-2020 03:26 174  
[   ]pilz_msgs26-Jul-2020 03:26 105  
[   ]pilz_store_positions26-Jul-2020 03:26 138  
[   ]pilz_trajectory_generation26-Jul-2020 03:26 207  
[   ]omnibase_control27-Jul-2020 03:19 126  
[   ]omnibase_description27-Jul-2020 03:19 138  
[   ]omnibase_gazebo27-Jul-2020 03:19 123  
[   ]cpp_common27-Jul-2020 03:43 108  
[   ]roscpp_core27-Jul-2020 03:43 111  
[   ]roscpp_serialization27-Jul-2020 03:43 138  
[   ]roscpp_traits27-Jul-2020 03:43 117  
[   ]rostime27-Jul-2020 03:43 97  
[   ]qt_dotgraph27-Jul-2020 03:44 111  
[   ]qt_gui27-Jul-2020 03:44 94  
[   ]qt_gui_app27-Jul-2020 03:44 108  
[   ]qt_gui_core27-Jul-2020 03:44 111  
[   ]qt_gui_cpp27-Jul-2020 03:44 108  
[   ]qt_gui_py_common27-Jul-2020 03:44 126  
[   ]jackal_control28-Jul-2020 03:35 120  
[   ]jackal_description28-Jul-2020 03:35 132  
[   ]jackal_msgs28-Jul-2020 03:35 111  
[   ]jackal_navigation28-Jul-2020 03:35 129  
[   ]psen_scan01-Aug-2020 05:31 105  
[   ]code_coverage01-Aug-2020 05:32 117  
[   ]fanuc_experimental01-Aug-2020 05:32 132  
[   ]fanuc_lrmate200id7l_moveit_config01-Aug-2020 05:32 177  
[   ]fanuc_lrmate200id_moveit_config01-Aug-2020 05:32 171  
[   ]fanuc_lrmate200id_moveit_plugins01-Aug-2020 05:32 174  
[   ]fanuc_lrmate200id_support01-Aug-2020 05:32 153  
[   ]fanuc_r2000ib_support01-Aug-2020 05:32 141  
[   ]pcl_conversions01-Aug-2020 05:33 123  
[   ]pcl_ros01-Aug-2020 05:33 97  
[   ]perception_pcl01-Aug-2020 05:33 120  
[   ]novatel_oem7_driver01-Aug-2020 05:33 135  
[   ]novatel_oem7_msgs01-Aug-2020 05:33 129  
[   ]message_filters01-Aug-2020 05:37 181  
[   ]ros_comm01-Aug-2020 05:37 100  
[   ]rosbag01-Aug-2020 05:37 154  
[   ]rosbag_storage01-Aug-2020 05:37 148  
[   ]roscpp01-Aug-2020 05:37 94  
[   ]roslz401-Aug-2020 05:37 94  
[   ]rosout01-Aug-2020 05:37 94  
[   ]test_rosbag01-Aug-2020 05:37 111  
[   ]test_rosbag_storage01-Aug-2020 05:37 135  
[   ]test_roscpp01-Aug-2020 05:37 111  
[   ]test_rosgraph01-Aug-2020 05:37 117  
[   ]test_roslaunch01-Aug-2020 05:37 120  
[   ]test_roslib_comm01-Aug-2020 05:37 126  
[   ]test_rosmaster01-Aug-2020 05:37 120  
[   ]test_rosparam01-Aug-2020 05:37 117  
[   ]test_rospy01-Aug-2020 05:37 108  
[   ]test_rosservice01-Aug-2020 05:37 123  
[   ]test_rostest01-Aug-2020 05:37 114  
[   ]test_rostopic01-Aug-2020 05:37 117  
[   ]topic_tools01-Aug-2020 05:37 111  
[   ]xmlrpcpp01-Aug-2020 05:37 100  
[   ]dynamic-graph-python01-Aug-2020 05:41 138  
[   ]webots_ros01-Aug-2020 05:43 108  
[   ]mapviz01-Aug-2020 05:47 94  
[   ]mapviz_plugins01-Aug-2020 05:47 120  
[   ]multires_image01-Aug-2020 05:47 120  
[   ]tile_map01-Aug-2020 05:47 100  
[   ]grid_map02-Aug-2020 03:25 100  
[   ]grid_map_core02-Aug-2020 03:25 117  
[   ]grid_map_costmap_2d02-Aug-2020 03:25 135  
[   ]grid_map_cv02-Aug-2020 03:25 111  
[   ]grid_map_demos02-Aug-2020 03:25 120  
[   ]grid_map_filters02-Aug-2020 03:25 126  
[   ]grid_map_loader02-Aug-2020 03:25 123  
[   ]grid_map_msgs02-Aug-2020 03:25 117  
[   ]grid_map_octomap02-Aug-2020 03:25 126  
[   ]grid_map_pcl02-Aug-2020 03:25 114  
[   ]grid_map_ros02-Aug-2020 03:25 114  
[   ]grid_map_rviz_plugin02-Aug-2020 03:25 138  
[   ]grid_map_sdf02-Aug-2020 03:25 114  
[   ]grid_map_visualization02-Aug-2020 03:25 144  
[   ]warthog_control02-Aug-2020 03:28 123  
[   ]warthog_description02-Aug-2020 03:28 135  
[   ]warthog_msgs02-Aug-2020 03:28 114  
[   ]dataspeed_pds02-Aug-2020 03:34 117  
[   ]dataspeed_pds_can02-Aug-2020 03:34 129  
[   ]dataspeed_pds_lcm02-Aug-2020 03:34 129  
[   ]dataspeed_pds_msgs02-Aug-2020 03:34 132  
[   ]dataspeed_pds_rqt02-Aug-2020 03:34 129  
[   ]dataspeed_pds_scripts02-Aug-2020 03:34 141  
[   ]file_uploader_msgs02-Aug-2020 03:58 132  
[   ]recorder_msgs02-Aug-2020 03:58 117  
[   ]rosbag_cloud_recorders02-Aug-2020 03:58 144  
[   ]rosbag_uploader_ros1_integration_tests02-Aug-2020 03:58 192  
[   ]s3_common02-Aug-2020 03:58 105  
[   ]s3_file_uploader02-Aug-2020 03:58 126  
[   ]rr_control_input_manager03-Aug-2020 03:15 150  
[   ]rr_openrover_description03-Aug-2020 03:15 150  
[   ]rr_openrover_driver03-Aug-2020 03:15 135  
[   ]rr_openrover_driver_msgs03-Aug-2020 03:15 150  
[   ]rr_openrover_simulation03-Aug-2020 03:15 147  
[   ]rr_openrover_stack03-Aug-2020 03:15 132  
[   ]rr_rover_zero_driver03-Aug-2020 03:15 138  
[   ]lanelet203-Aug-2020 03:21 100  
[   ]lanelet2_core03-Aug-2020 03:21 117  
[   ]lanelet2_examples03-Aug-2020 03:21 129  
[   ]lanelet2_io03-Aug-2020 03:21 111  
[   ]lanelet2_maps03-Aug-2020 03:21 117  
[   ]lanelet2_projection03-Aug-2020 03:21 135  
[   ]lanelet2_python03-Aug-2020 03:21 123  
[   ]lanelet2_routing03-Aug-2020 03:21 126  
[   ]lanelet2_traffic_rules03-Aug-2020 03:21 144  
[   ]lanelet2_validation03-Aug-2020 03:21 135  
[   ]simple_qt_gui03-Aug-2020 03:38 117  
[   ]optris_drivers03-Aug-2020 03:39 120  
[   ]nerian_stereo03-Aug-2020 03:46 117  
[   ]costmap_cspace03-Aug-2020 03:47 120  
[   ]joystick_interrupt03-Aug-2020 03:47 132  
[   ]map_organizer03-Aug-2020 03:47 117  
[   ]neonavigation03-Aug-2020 03:47 117  
[   ]neonavigation_common03-Aug-2020 03:47 138  
[   ]neonavigation_launch03-Aug-2020 03:47 138  
[   ]obj_to_pointcloud03-Aug-2020 03:47 129  
[   ]planner_cspace03-Aug-2020 03:47 120  
[   ]safety_limiter03-Aug-2020 03:47 120  
[   ]track_odometry03-Aug-2020 03:47 120  
[   ]trajectory_tracker03-Aug-2020 03:47 132  
[   ]audio_capture03-Aug-2020 03:48 117  
[   ]audio_common03-Aug-2020 03:48 114  
[   ]audio_common_msgs03-Aug-2020 03:48 129  
[   ]audio_play03-Aug-2020 03:48 108  
[   ]sound_play03-Aug-2020 03:48 108  
[   ]ypspur03-Aug-2020 03:50 94  
[   ]slam_toolbox03-Aug-2020 03:52 114  
[   ]slam_toolbox_msgs03-Aug-2020 03:52 129  
[   ]rc_hand_eye_calibration_client03-Aug-2020 04:09 168  
[   ]rc_pick_client03-Aug-2020 04:09 120  
[   ]rc_roi_manager_gui03-Aug-2020 04:09 132  
[   ]rc_silhouettematch_client03-Aug-2020 04:09 153  
[   ]rc_tagdetect_client03-Aug-2020 04:09 135  
[   ]rc_visard03-Aug-2020 04:09 105  
[   ]rc_visard_description03-Aug-2020 04:09 141  
[   ]rc_visard_driver03-Aug-2020 04:09 126  
[   ]libmavconn04-Aug-2020 03:16 108  
[   ]mavros04-Aug-2020 03:16 94  
[   ]mavros_extras04-Aug-2020 03:16 117  
[   ]mavros_msgs04-Aug-2020 03:16 111  
[   ]test_mavros04-Aug-2020 03:16 111  
[   ]moveit_visual_tools04-Aug-2020 03:17 135  
[   ]gencpp04-Aug-2020 03:31 94  
[   ]fetch_calibration04-Aug-2020 03:41 129  
[   ]fetch_depth_layer04-Aug-2020 03:41 129  
[   ]fetch_description04-Aug-2020 03:41 129  
[   ]fetch_ikfast_plugin04-Aug-2020 03:41 135  
[   ]fetch_maps04-Aug-2020 03:41 108  
[   ]fetch_moveit_config04-Aug-2020 03:41 135  
[   ]fetch_navigation04-Aug-2020 03:41 126  
[   ]fetch_ros04-Aug-2020 03:41 105  
[   ]fetch_teleop04-Aug-2020 03:41 114  
[   ]soem04-Aug-2020 03:43 88  
[   ]gtsam04-Aug-2020 03:47 91  
[   ]audibot05-Aug-2020 03:07 97  
[   ]audibot_description05-Aug-2020 03:07 135  
[   ]audibot_gazebo05-Aug-2020 03:07 120  
[   ]neonavigation_rviz_plugins05-Aug-2020 03:19 156  
[   ]trajectory_tracker_rviz_plugins05-Aug-2020 03:19 171  
[   ]mcl_3dl_msgs05-Aug-2020 03:20 114  
[   ]keypress_monitor05-Aug-2020 03:33 126  
[   ]crane_x705-Aug-2020 03:41 100  
[   ]crane_x7_bringup05-Aug-2020 03:41 126  
[   ]crane_x7_control05-Aug-2020 03:42 126  
[   ]crane_x7_description05-Aug-2020 03:42 138  
[   ]crane_x7_examples05-Aug-2020 03:42 129  
[   ]crane_x7_gazebo05-Aug-2020 03:42 123  
[   ]crane_x7_moveit_config05-Aug-2020 03:42 144  
[   ]crane_x7_msgs05-Aug-2020 03:42 117  
[   ]hokuyo3d05-Aug-2020 03:57 100  
[   ]realsense2_camera06-Aug-2020 03:12 129  
[   ]realsense2_description06-Aug-2020 03:12 144  
[   ]topics_rviz_plugin06-Aug-2020 03:15 132  
[   ]multisense06-Aug-2020 03:58 108  
[   ]multisense_bringup06-Aug-2020 03:58 132  
[   ]multisense_cal_check06-Aug-2020 03:58 138  
[   ]multisense_description06-Aug-2020 03:58 144  
[   ]multisense_lib06-Aug-2020 03:58 120  
[   ]multisense_ros06-Aug-2020 03:58 120  
[   ]velodyne_description06-Aug-2020 03:59 138  
[   ]velodyne_gazebo_plugins06-Aug-2020 03:59 147  
[   ]velodyne_simulator06-Aug-2020 03:59 132  
[   ]mcl_3dl07-Aug-2020 03:09 97  
[   ]pilz_control07-Aug-2020 03:14 151  
[   ]pilz_robots07-Aug-2020 03:14 111  
[   ]pilz_status_indicator_rqt07-Aug-2020 03:14 153  
[   ]pilz_testutils07-Aug-2020 03:14 159  
[   ]pilz_utils07-Aug-2020 03:14 143  
[   ]prbt_gazebo07-Aug-2020 03:14 111  
[   ]prbt_hardware_support07-Aug-2020 03:14 187  
[   ]prbt_ikfast_manipulator_plugin07-Aug-2020 03:14 168  
[   ]prbt_moveit_config07-Aug-2020 03:14 132  
[   ]prbt_support07-Aug-2020 03:14 114  
[   ]inertial_sense07-Aug-2020 03:20 120  
[   ]costmap_cspace_msgs07-Aug-2020 03:30 135  
[   ]map_organizer_msgs07-Aug-2020 03:30 132  
[   ]ros_tutorials07-Aug-2020 03:30 117  
[   ]roscpp_tutorials07-Aug-2020 03:30 126  
[   ]rospy_tutorials07-Aug-2020 03:30 123  
[   ]turtlesim07-Aug-2020 03:30 105  
[   ]neonavigation_msgs07-Aug-2020 03:30 132  
[   ]planner_cspace_msgs07-Aug-2020 03:30 135  
[   ]safety_limiter_msgs07-Aug-2020 03:30 135  
[   ]trajectory_tracker_msgs07-Aug-2020 03:30 147  
[   ]dbw_fca07-Aug-2020 03:36 97  
[   ]dbw_fca_can07-Aug-2020 03:36 111  
[   ]dbw_fca_description07-Aug-2020 03:36 135  
[   ]dbw_fca_joystick_demo07-Aug-2020 03:36 141  
[   ]dbw_fca_msgs07-Aug-2020 03:36 114  
[   ]warthog_gazebo07-Aug-2020 03:38 120  
[   ]warthog_simulator07-Aug-2020 03:38 129  
[   ]controller_stopper07-Aug-2020 03:41 132  
[   ]ur_calibration07-Aug-2020 03:41 120  
[   ]ur_controllers07-Aug-2020 03:41 120  
[   ]ur_dashboard_msgs07-Aug-2020 03:41 129  
[   ]ur_robot_driver07-Aug-2020 03:41 123  
[   ]rosconsole07-Aug-2020 03:52 108  
[   ]dbw_mkz07-Aug-2020 03:55 97  
[   ]dbw_mkz_can07-Aug-2020 03:55 111  
[   ]dbw_mkz_description07-Aug-2020 03:55 135  
[   ]dbw_mkz_joystick_demo07-Aug-2020 03:55 141  
[   ]dbw_mkz_msgs07-Aug-2020 03:55 114  
[   ]ros_control_boilerplate07-Aug-2020 03:57 147  
[   ]jackal_gazebo07-Aug-2020 04:00 117  
[   ]jackal_simulator07-Aug-2020 04:00 126  
[   ]mvsim07-Aug-2020 04:03 91  
[   ]plotjuggler07-Aug-2020 04:08 111  
[   ]open_karto08-Aug-2020 06:47 108  
[   ]oxford_gps_eth08-Aug-2020 06:48 120  
[   ]rqt_plot08-Aug-2020 06:48 100  
[   ]pinocchio08-Aug-2020 06:49 105  
[   ]mecanum_gazebo_plugin08-Aug-2020 06:51 141  
[   ]ridgeback_gazebo08-Aug-2020 06:51 126  
[   ]ridgeback_gazebo_plugins08-Aug-2020 06:51 150  
[   ]ridgeback_simulator08-Aug-2020 06:51 135  
[   ]husky_base08-Aug-2020 06:55 108  
[   ]husky_bringup08-Aug-2020 06:55 117  
[   ]husky_control08-Aug-2020 06:55 117  
[   ]husky_description08-Aug-2020 06:55 129  
[   ]husky_desktop08-Aug-2020 06:55 117  
[   ]husky_gazebo08-Aug-2020 06:55 114  
[   ]husky_msgs08-Aug-2020 06:55 108  
[   ]husky_navigation08-Aug-2020 06:55 126  
[   ]husky_robot08-Aug-2020 06:55 111  
[   ]husky_simulator08-Aug-2020 06:55 123  
[   ]husky_viz08-Aug-2020 06:55 105